GFSSGP_con_3kmhel_078.txt.gz
Helicity
26 30 27 58 45 32 33 3 103 37 34 37 28 -26 -16 6 22 17 53 -8 13 69 151 254 340 152 125 196 197 216 187 182 163 158 167 171 155 148 131 127 107 102 80 77 88 82 68 54 34
22 30 26 25 31 124 42 63 56 14 -0 7 66 11 20 -14 18 66 86 -24 -58 29 177 265 508 301 94 128 154 171 165 169 154 149 155 148 135 132 124 121 103 87 73 59 60 58 59 46 29
16 4 35 -2 45 107 104 96 68 38 14 9 19 22 28 -28 42 77 9 -8 -1 -12 131 171 299 400 93 99 132 153 167 150 128 118 133 121 119 121 104 103 92 75 55 50 47 50 60 64 34
36 23 16 45 55 96 200 81 44 67 72 60 -24 64 28 68 19 77 16 -2 51 61 65 95 232 205 143 147 165 156 159 138 121 132 132 118 107 99 105 100 83 68 52 43 45 62 94 81 88
15 40 28 66 91 176 187 151 33 37 -4 30 35 38 78 -8 48 49 58 35 77 53 34 125 92 189 197 213 202 183 181 140 132 134 116 102 100 112 104 85 64 50 39 41 51 72 114 112 91
58 48 68 94 110 132 24 95 90 46 30 37 96 98 105 106 64 120 45 93 92 57 103 71 186 129 75 120 302 233 180 137 127 123 126 123 113 103 93 73 61 55 46 56 64 66 107 130 105
91 103 63 98 112 113 116 45 79 83 93 57 97 133 206 104 37 72 48 114 157 164 266 45 64 94 98 276 327 296 155 142 126 136 136 141 114 99 76 75 64 52 51 54 59 64 99 163 115
70 68 45 56 131 112 99 46 79 112 46 81 55 30 45 -1 -12 38 57 102 158 207 136 181 107 -62 68 275 437 413 162 186 188 174 150 149 134 105 77 73 63 53 54 55 69 53 102 141 146
7 82 67 109 125 88 55 62 67 53 85 9 51 29 21 95 42 56 19 97 127 127 130 222 167 10 77 907 390 313 181 249 234 226 198 164 123 99 82 61 54 63 71 49 62 75 98 111 146
11 30 45 112 108 68 49 46 64 96 44 48 43 26 28 99 52 58 51 61 96 100 155 164 213 120 51 45 325 222 203 201 252 214 203 178 146 100 71 68 65 56 65 52 63 92 49 95 97
9 21 90 119 116 65 29 35 78 118 85 11 47 59 73 69 68 57 96 82 113 111 150 152 203 197 207 239 301 146 189 206 212 205 205 186 190 135 76 69 53 90 75 60 41 36 43 47 71
31 25 112 63 76 71 69 51 83 64 69 143 167 116 64 74 -43 21 146 161 164 144 187 149 133 206 260 169 168 147 254 174 154 149 179 158 125 125 77 35 61 70 67 39 32 37 44 36 60
97 6 -41 7 22 47 69 107 96 126 122 197 121 110 157 96 83 166 193 165 141 194 160 166 187 192 228 298 254 161 327 331 225 219 149 102 120 101 32 63 47 90 70 27 39 36 12 35 53
-30 -39 -51 -68 -11 13 44 158 147 70 138 173 217 213 88 120 138 152 167 104 113 156 153 216 238 268 262 311 258 280 303 299 204 106 37 74 94 46 -8 56 25 64 54 28 40 16 28 40 50
-36 -115 -115 -47 -23 29 131 125 83 148 166 212 76 112 54 78 72 78 131 94 68 132 170 218 305 325 259 230 243 277 313 214 197 152 72 40 53 -17 26 7 18 39 45 49 54 48 61 62 46
-101 -65 -10 47 58 94 129 112 121 244 197 168 179 105 140 95 51 92 84 112 102 124 144 202 203 243 300 226 232 371 298 261 246 166 105 63 36 -30 31 -17 17 34 71 69 73 71 69 68 55
-25 4 -6 44 96 125 135 103 161 204 194 154 134 89 107 112 82 75 59 67 89 130 140 111 142 239 378 193 274 367 249 238 305 246 202 173 -18 4 7 -9 37 69 25 62 85 88 102 98 65
26 5 20 12 59 101 183 103 222 161 201 183 156 117 126 94 39 76 40 44 47 67 87 105 84 130 171 102 257 115 125 235 281 112 179 -3 49 -7 -72 -53 -27 35 81 85 108 134 116 112 93
8 -32 43 97 124 102 85 94 110 219 117 235 187 155 171 113 31 48 67 41 13 -4 5 34 64 41 58 109 173 142 98 74 3 -91 -133 -60 -95 -80 -90 -43 65 80 113 125 139 152 136 130 146
-22 -8 77 102 -2 85 40 49 71 228 138 265 264 223 175 145 113 79 58 43 18 -4 -45 -78 -88 -48 -28 15 4 30 -36 -41 -96 -165 -239 -188 -158 -141 -74 28 62 99 111 128 170 196 190 151 198
-26 26 125 37 -47 -1 50 37 23 98 71 118 202 188 182 247 171 111 66 29 5 -32 -95 -67 -63 -40 -52 -53 -65 -111 -120 -119 -191 -250 -269 -203 -133 -69 24 63 86 105 119 159 189 213 225 214 204
-12 24 20 -2 11 -55 36 -64 -12 78 139 211 140 189 196 237 160 110 80 56 10 -61 -91 -77 -67 -75 -100 -115 -121 -92 -96 -100 -126 -133 -155 -114 -26 9 70 81 103 115 152 182 208 226 241 266 260
13 91 -12 26 -4 -54 -37 -12 -24 33 156 287 252 176 231 273 254 151 118 75 7 5 -25 -44 -28 -38 -43 -47 -48 -38 -25 -39 -53 -52 -14 5 19 45 88 103 125 131 149 180 251 255 246 293 303
36 43 55 60 23 -38 32 41 -40 -36 98 319 256 292 277 288 266 172 104 94 49 20 30 -4 6 -10 -12 -6 -1 7 19 -7 -21 5 28 41 64 77 86 100 115 136 184 200 222 260 270 319 307
44 96 62 -18 34 -28 34 14 96 5 19 230 322 339 321 318 275 201 162 155 132 136 109 64 47 22 9 -9 -30 -31 -16 1 43 30 48 59 61 85 108 133 164 187 216 188 232 272 314 397 391
93 107 116 38 5 18 35 13 -18 13 -0 31 138 380 394 342 280 257 279 222 191 209 175 139 104 39 50 51 19 3 15 11 62 99 155 173 179 175 192 178 178 254 271 242 288 362 398 426 458
71 168 132 141 64 49 61 11 31 63 83 -5 -0 113 297 371 286 264 260 309 234 213 207 226 165 120 72 96 71 73 73 79 116 165 247 273 279 220 211 226 233 320 300 312 327 360 399 419 367
119 118 176 173 83 33 28 66 68 28 50 54 36 20 106 233 295 292 261 268 308 248 185 138 113 179 156 106 76 103 157 175 180 256 288 223 258 292 273 296 267 272 349 320 339 362 360 343 338
167 179 163 119 149 72 52 83 8 1 45 66 46 37 50 122 180 259 304 345 344 369 319 229 157 151 149 168 177 188 245 273 328 369 329 315 321 349 291 159 304 357 306 350 346 332 327 321 349
97 132 137 171 167 122 86 41 36 18 23 22 22 50 97 53 39 69 105 213 296 327 367 357 286 231 198 187 224 314 279 322 370 417 355 506 527 116 138 270 346 359 356 329 333 341 305 296 292

GFSSGP_con_3kmhel_084.txt.gz
Helicity
48 38 32 29 112 193 218 139 38 58 30 22 28 40 35 79 33 12 21 47 60 101 210 267 202 156 188 201 249 327 315 277 315 373 295 225 222 232 227 214 193 168 138 112 105 87 90 80 73
39 30 33 45 181 252 190 52 62 55 24 16 55 73 67 41 31 21 65 54 83 116 146 174 253 183 173 204 322 331 328 266 298 288 220 206 207 226 222 199 180 153 112 90 85 64 71 66 63
41 24 57 108 202 229 169 88 116 90 50 64 70 77 71 73 86 66 92 53 73 108 156 167 166 221 230 252 315 315 321 318 294 311 232 197 208 206 179 174 162 133 106 67 57 52 60 51 45
58 44 60 138 192 75 74 120 130 5 29 65 93 61 79 143 116 102 27 67 56 83 138 157 158 179 176 205 272 299 331 317 261 176 196 195 193 197 157 164 154 137 99 63 56 53 52 51 41
61 73 107 124 177 48 59 96 52 57 65 112 110 95 94 145 98 96 54 41 94 97 126 137 109 162 168 155 179 266 344 214 196 177 143 183 228 193 147 163 152 117 62 38 39 48 50 36 24
115 97 116 112 173 60 38 48 44 73 82 114 114 145 132 124 107 68 84 43 64 198 139 40 138 143 249 133 155 218 322 244 148 257 191 208 245 189 163 167 146 95 63 60 56 57 41 34 29
123 124 91 125 164 71 68 30 56 60 125 100 189 164 125 102 84 92 80 50 17 135 134 76 136 185 303 133 71 232 328 302 195 212 218 255 269 204 172 171 120 100 95 69 70 52 38 35 22
117 123 103 124 196 156 40 86 57 122 97 178 206 165 128 109 94 89 103 88 49 58 125 106 112 107 193 214 181 188 224 261 230 230 288 350 289 192 179 142 101 102 96 45 17 28 36 29 18
109 110 81 148 203 102 115 85 73 121 176 152 200 199 186 117 101 108 96 85 167 195 46 130 93 110 203 223 171 168 221 239 210 227 287 346 296 214 171 155 131 113 101 76 29 33 61 31 36
139 110 76 118 79 112 91 58 68 149 189 169 168 168 185 174 134 107 76 77 137 170 93 99 171 66 35 130 224 370 349 330 204 175 304 398 290 224 178 176 154 132 120 102 66 57 59 66 39
143 78 68 63 80 38 81 17 106 178 186 212 141 159 198 223 155 114 46 39 63 46 42 53 80 55 94 13 104 290 319 177 176 189 285 334 319 254 222 218 168 139 126 105 87 69 20 61 39
176 60 83 21 28 50 20 55 111 232 298 188 186 216 200 141 111 62 39 15 102 81 45 29 90 103 17 104 -1 151 401 244 251 215 315 316 340 265 204 184 148 125 104 76 98 46 32 55 46
171 76 70 45 27 37 50 111 140 235 207 235 259 231 151 68 61 79 65 105 113 35 61 66 125 81 96 178 462 379 492 435 299 188 245 242 290 219 155 163 139 108 83 82 78 56 36 57 47
155 138 23 1 -1 9 20 42 107 148 208 218 215 164 127 94 84 89 83 124 55 50 57 91 137 98 139 143 330 445 381 347 201 170 216 201 230 151 162 161 110 91 75 78 46 54 59 41 35
143 93 -8 -18 -13 4 34 12 137 136 138 187 180 146 123 81 95 67 93 118 -8 13 81 99 99 95 85 114 53 100 185 232 239 161 159 161 175 121 143 122 88 43 97 72 89 107 100 67 40
112 127 72 13 28 5 13 -13 -4 40 154 160 159 149 132 104 81 70 114 107 40 41 101 156 108 129 134 65 27 56 162 214 233 178 99 108 113 106 158 93 90 66 123 67 81 102 93 64 49
122 108 77 9 3 27 -6 -4 26 19 55 113 130 160 149 121 77 71 131 116 47 39 66 141 186 185 229 169 213 194 162 224 238 204 215 144 139 127 130 77 113 84 104 61 94 95 93 64 53
126 109 73 68 35 33 37 40 33 107 130 117 104 130 141 142 105 74 145 133 45 45 58 120 190 196 176 183 220 217 152 219 256 228 191 198 181 100 108 102 106 94 101 80 89 106 92 66 76
114 112 81 30 -8 82 40 -50 35 28 94 137 97 114 119 149 116 94 131 136 35 22 80 78 106 218 239 222 202 143 37 134 186 160 138 95 96 82 103 95 85 69 100 74 73 110 89 94 104
135 93 37 -37 -14 59 45 -38 -4 44 62 149 124 76 126 166 120 91 108 110 83 37 42 79 111 123 199 234 307 150 62 179 159 149 173 83 75 113 76 87 68 70 88 75 64 127 121 116 146
136 111 90 70 51 93 102 -1 -57 -18 16 66 78 53 73 160 167 118 99 81 62 83 69 44 25 30 84 151 266 188 224 229 246 209 268 60 43 58 71 25 25 37 48 42 91 125 141 146 144
143 140 77 88 151 130 125 -28 -67 -68 -84 15 60 49 51 84 97 117 90 76 53 33 51 55 44 46 7 34 65 -43 73 137 141 153 -63 -75 -70 -79 -96 -76 -9 60 87 67 106 139 181 210 192
113 104 80 104 162 137 63 79 -60 -48 -40 15 71 112 74 95 100 119 105 65 59 61 62 50 22 20 24 40 10 -35 39 30 -6 -1 -66 -85 -101 -26 -139 0 15 10 31 67 131 177 171 200 229
85 88 87 136 166 113 83 74 -5 -4 -3 0 -9 92 120 131 120 65 74 75 60 35 41 40 23 22 14 12 -32 -7 -5 7 -2 -68 -120 -133 -173 -110 -123 -101 -53 4 68 114 146 162 171 199 208
121 166 220 182 217 156 99 58 0 15 60 78 77 81 79 163 178 143 128 98 90 75 56 49 60 25 16 13 -28 -50 -54 -61 -46 -65 -132 -174 -218 -192 -153 -81 -44 27 101 121 171 188 177 201 227
148 207 283 210 176 163 190 -18 29 -18 27 25 31 15 36 129 156 161 191 180 151 128 104 80 78 30 19 20 -12 -47 -62 -92 -107 -134 -150 -200 -171 -191 -115 -48 -2 58 94 115 154 155 201 222 203
152 225 186 181 152 93 123 119 41 27 23 31 -7 -33 39 119 194 157 168 193 212 194 191 150 107 65 58 53 25 3 -5 -12 -59 -102 -164 -199 -190 -141 -100 -57 -45 8 81 152 186 177 144 156 188
174 125 238 306 146 103 123 116 85 43 93 54 38 -17 9 64 140 119 139 172 196 203 211 207 184 156 136 116 95 72 49 48 41 15 -14 -41 -88 -93 -88 -69 1 39 88 179 181 190 179 169 170
194 174 202 182 223 169 92 69 85 62 42 52 36 -11 -9 45 126 146 142 159 203 232 246 237 244 214 190 171 143 121 108 92 76 47 8 23 34 74 109 138 169 174 131 179 256 157 192 201 288
132 152 160 199 244 213 167 148 101 1 60 48 32 21 24 8 59 50 70 147 202 225 280 333 280 265 260 253 217 181 200 243 208 201 206 160 130 143 166 233 254 247 118 231 336 319 150 167 231

GFSSGP_con_3kmhel_087.txt.gz
Helicity
44 31 28 34 101 167 172 159 64 54 52 28 34 43 46 42 31 45 91 49 60 80 61 127 252 162 132 204 207 229 261 292 276 255 218 302 260 242 217 213 189 155 118 99 85 79 76 70 81
45 36 36 67 112 155 166 99 64 34 34 21 28 61 58 51 109 119 104 80 54 47 93 86 168 159 175 247 236 229 262 280 250 272 312 229 246 247 224 213 181 148 125 111 86 73 73 73 74
44 22 52 93 134 157 177 110 74 67 14 21 47 70 86 84 111 138 115 106 57 52 98 82 122 132 179 199 197 227 253 277 241 252 289 279 222 224 225 208 165 132 108 94 84 82 65 60 62
51 51 68 92 120 138 150 125 76 41 22 48 77 55 121 128 130 135 43 59 51 55 102 186 105 123 174 142 193 264 257 279 247 240 267 223 214 217 249 204 146 102 61 87 80 72 54 39 45
68 78 93 79 126 136 62 60 44 52 41 66 124 128 154 109 121 99 52 58 60 84 96 113 185 117 59 157 192 258 278 295 283 279 271 223 231 225 243 172 117 123 101 77 61 54 57 56 51
113 94 103 74 121 148 76 35 94 79 72 78 135 173 157 150 135 83 57 52 72 56 111 121 163 227 91 76 152 272 250 253 336 280 252 257 219 263 231 205 161 135 82 71 52 63 44 38 25
121 116 91 93 111 198 149 44 124 67 66 75 176 175 174 134 140 83 83 68 61 32 109 130 128 118 78 125 85 109 176 267 306 291 237 228 260 264 242 229 174 112 50 50 52 50 32 14 26
138 134 112 103 118 145 83 50 71 66 54 123 186 163 160 150 139 105 106 75 68 96 59 84 148 176 141 134 138 85 141 236 278 302 247 272 273 300 312 229 139 65 55 39 47 26 16 25 10
139 131 93 108 165 102 71 62 46 81 85 136 220 230 209 184 147 158 101 96 82 112 34 118 106 111 136 185 174 87 90 152 201 313 324 332 286 247 245 192 110 58 48 50 38 38 30 23 39
162 132 98 103 146 119 54 44 54 60 70 129 174 233 258 204 165 131 127 53 61 26 5 9 80 76 126 164 178 163 153 202 197 262 311 342 285 239 269 203 108 70 39 38 45 42 46 32 21
164 113 125 135 108 60 61 41 54 50 66 144 140 132 223 198 166 124 87 45 16 -61 -27 -7 3 69 79 96 174 230 243 273 255 243 285 366 300 308 305 211 94 81 41 20 28 37 2 35 -18
141 91 99 68 93 94 27 30 33 111 132 169 116 141 186 198 128 111 83 8 -33 -109 -57 30 50 67 61 76 49 168 324 240 408 338 244 351 338 317 257 189 110 96 37 23 -1 -8 19 27 12
137 107 104 74 59 31 28 43 38 172 207 193 193 167 164 141 118 116 104 68 -51 -69 33 58 29 57 49 46 12 142 361 462 467 407 268 349 320 294 216 164 123 86 49 23 -8 17 27 43 37
111 72 53 33 14 22 33 2 52 62 96 152 179 153 112 101 87 100 81 61 -69 19 54 99 96 56 42 61 115 218 369 432 383 416 383 264 290 291 222 168 124 94 66 28 -1 22 25 44 38
103 61 28 32 51 51 38 40 55 41 89 112 124 129 108 78 88 65 61 65 -9 18 36 114 106 118 73 96 230 276 390 393 262 313 188 265 250 240 209 136 120 86 61 34 41 78 28 41 40
111 89 49 73 76 103 41 -45 -3 28 35 71 129 122 104 85 88 81 75 74 36 23 83 90 94 85 90 63 604 450 678 400 296 252 211 216 223 187 168 123 96 91 75 52 64 83 31 37 47
140 88 75 54 97 129 85 -28 -9 29 42 78 133 134 116 94 109 109 105 88 41 57 71 85 91 85 106 91 182 250 328 318 333 318 239 180 146 178 167 132 94 72 73 59 82 75 50 46 51
143 121 104 74 139 167 102 1 4 -3 22 48 122 137 132 92 87 110 102 158 35 46 62 119 101 129 145 141 154 169 209 313 290 318 200 219 98 66 117 119 103 92 85 73 103 71 50 51 65
104 91 79 57 77 115 70 52 2 -12 24 46 105 127 123 96 92 127 110 143 16 38 74 96 123 126 116 102 172 144 172 181 233 288 266 101 67 117 131 119 105 95 68 66 97 73 68 77 98
104 91 58 1 68 66 77 4 -18 7 23 30 71 95 109 107 102 132 101 108 45 22 54 80 113 124 119 117 140 113 204 180 234 215 131 162 195 156 109 128 93 69 73 53 76 84 88 87 116
81 78 63 37 69 48 47 49 64 37 -1 34 39 47 82 100 94 128 109 78 112 70 99 88 90 124 146 170 170 218 152 177 215 217 206 104 127 215 169 90 66 46 48 38 58 79 66 73 105
86 69 64 50 78 76 122 -1 53 -16 -13 23 19 50 57 92 56 93 100 82 77 95 92 117 77 71 114 163 175 178 52 162 144 157 197 169 54 -70 -65 -10 11 -9 -4 -12 35 78 66 111 127
54 52 61 68 86 77 90 61 21 31 38 -18 1 45 41 68 79 75 104 103 83 94 106 88 95 90 31 57 79 110 28 2 97 128 66 50 54 18 -67 -82 -59 -41 -9 12 31 79 77 106 132
40 42 111 156 141 76 91 66 2 37 20 68 99 27 40 40 57 39 77 80 90 72 71 73 55 56 65 87 86 48 36 35 62 36 44 19 11 -29 -53 -68 -57 -29 -19 -4 10 48 48 97 135
89 126 166 166 173 117 101 87 75 29 21 121 106 54 50 55 50 51 81 82 72 89 82 54 36 31 33 33 28 11 19 19 22 42 72 24 -47 -71 -59 -31 -20 -40 -50 -30 -5 0 50 133 186
72 124 184 110 108 117 188 115 49 -5 29 25 42 49 38 40 49 38 77 85 77 75 65 65 55 23 16 21 4 -27 -18 -32 -29 10 40 41 15 -35 -71 -57 -61 -91 -123 -106 -32 32 80 124 152
126 147 82 152 175 144 104 90 32 12 11 53 28 46 52 35 67 68 48 83 72 87 88 81 58 32 28 17 -8 -13 -22 -28 -36 -41 -56 -53 -60 -48 -56 -67 -55 -76 -51 -71 -35 0 16 46 117
129 70 153 173 154 136 156 119 91 33 -7 51 60 44 25 50 41 66 53 60 73 73 94 89 74 78 58 43 34 17 28 10 -6 -18 -11 -13 -67 -112 -116 -101 -89 -60 -46 -29 -14 -12 37 104 152
145 119 171 173 188 143 117 77 61 -4 15 36 94 49 11 19 39 66 46 27 50 83 93 87 81 70 73 53 51 40 37 41 42 37 16 12 4 -4 -21 -16 -2 32 54 88 51 10 28 90 154
135 187 153 138 142 134 142 82 80 7 -21 3 85 65 34 24 41 56 39 37 64 105 112 106 98 87 92 92 72 51 49 55 56 60 64 60 44 61 57 68 81 104 109 127 157 146 79 131 192

GFSSGP_con_3kmhel_090.txt.gz
Helicity
32 16 6 6 4 25 111 123 107 61 60 50 30 22 32 3 41 76 106 75 53 32 56 140 121 97 127 130 167 178 191 235 269 259 232 231 134 135 170 142 147 137 110 91 87 88 81 78 85
30 22 12 22 10 52 135 155 97 80 42 28 13 25 26 18 57 73 95 91 61 48 38 101 161 103 163 117 117 141 194 242 264 289 252 257 153 142 177 189 193 153 111 95 82 78 67 67 87
23 -6 17 36 63 46 86 165 98 93 37 35 48 37 44 44 96 113 145 96 68 40 44 55 160 166 88 128 113 108 179 235 258 288 248 232 151 226 210 234 207 136 103 77 69 64 55 67 74
33 45 47 28 80 154 103 131 133 84 66 39 32 51 87 100 140 133 121 74 43 40 44 104 154 116 94 113 102 135 96 246 275 257 267 210 181 209 237 212 193 132 104 82 69 56 59 70 75
44 43 44 44 81 143 134 122 82 99 91 78 75 44 70 96 111 93 99 77 58 56 108 103 80 126 139 128 55 106 181 256 286 236 243 190 221 215 219 194 142 122 94 91 72 49 51 56 59
71 46 49 55 119 168 167 85 74 80 61 90 73 49 60 182 103 106 96 82 70 65 94 68 58 143 228 168 80 77 211 259 254 252 219 209 236 196 188 170 131 156 134 100 64 52 46 46 46
38 47 21 37 58 139 133 91 113 66 34 31 76 46 72 112 141 134 111 94 95 88 89 66 95 125 168 156 101 32 189 250 257 269 239 228 217 245 214 212 189 163 132 89 66 47 39 43 26
71 53 36 56 56 71 143 101 53 42 15 91 86 54 46 180 143 129 110 88 107 129 112 109 101 107 172 41 43 27 176 154 295 304 260 284 251 273 268 212 179 157 114 80 48 44 38 17 25
102 54 32 44 71 73 107 113 59 40 12 68 88 70 105 191 165 108 83 103 117 161 177 161 101 116 42 48 50 62 241 85 248 296 289 293 217 178 128 132 139 137 85 65 61 54 30 37 41
89 55 10 52 53 89 31 79 21 29 1 49 85 89 116 146 143 110 75 92 101 82 139 5 123 7 -36 -6 37 97 32 231 207 247 182 242 203 151 136 118 109 129 107 81 72 40 45 11 22
91 41 22 47 53 80 11 46 41 -5 2 -5 -7 40 122 115 111 102 70 54 61 64 120 138 142 -8 12 49 26 99 161 144 212 189 147 209 197 232 157 126 100 125 97 53 34 25 5 15 16
90 55 7 31 23 51 30 -8 11 3 30 19 13 76 110 102 114 102 64 50 56 61 5 145 98 65 57 72 63 77 180 306 276 142 142 179 211 173 183 136 113 138 57 35 6 5 5 14 24
72 47 31 42 31 18 -0 27 10 19 20 34 45 68 89 93 122 112 77 55 37 62 65 57 31 46 78 133 83 43 79 145 429 337 194 195 179 184 180 163 131 105 64 9 10 3 -5 9 27
86 55 51 29 39 21 27 23 25 46 26 42 45 58 105 121 119 131 87 45 30 56 67 50 74 44 28 91 59 45 71 158 395 343 232 160 155 161 160 174 135 109 68 13 19 -3 -1 -11 19
81 45 36 39 29 25 10 30 57 14 28 44 30 58 90 119 154 142 88 52 51 52 49 58 45 56 51 80 29 56 116 247 424 415 346 289 130 115 147 200 150 95 68 38 29 4 -13 -2 18
61 57 42 111 66 80 67 -13 96 63 20 21 46 76 78 105 130 144 73 86 88 52 18 51 40 47 79 71 80 127 75 538 570 432 410 243 177 138 214 237 175 118 105 60 38 9 -14 19 24
77 52 46 46 62 79 87 -19 94 27 10 7 32 65 88 97 124 108 110 130 150 65 55 41 40 50 63 95 331 318 573 620 644 458 476 179 171 186 184 179 167 161 144 57 34 9 9 47 29
48 37 37 31 95 80 69 39 -3 26 21 26 27 45 77 84 114 123 116 152 164 28 33 50 39 56 75 98 407 452 571 682 492 447 346 157 201 124 182 155 160 146 125 51 33 36 59 65 51
115 70 45 34 122 89 49 41 16 -16 39 29 20 40 67 84 131 126 108 130 76 3 28 37 33 33 91 96 193 193 174 264 320 316 205 123 165 190 115 126 137 129 145 46 37 53 75 88 74
64 58 27 33 84 78 30 32 16 -4 3 43 32 35 59 91 116 118 89 100 94 26 27 18 44 49 67 117 141 165 178 212 304 409 242 149 218 197 64 47 96 94 99 88 45 54 52 69 65
59 45 27 42 64 40 26 11 27 27 57 76 46 20 59 71 95 108 76 90 94 71 40 51 57 60 38 49 157 235 274 251 239 201 308 368 341 170 86 36 113 55 83 85 64 48 47 51 59
29 32 36 50 75 90 104 20 14 52 6 -3 17 44 39 59 77 100 73 90 77 101 100 109 73 48 63 87 88 123 146 131 133 206 311 319 227 3 48 51 57 27 83 93 41 -1 9 16 42
48 64 49 56 71 75 49 44 21 24 10 2 53 47 30 56 58 93 67 66 72 94 111 118 117 54 70 84 89 117 98 61 138 141 148 124 124 116 122 95 49 44 33 -27 -53 -22 -10 13 6
87 79 77 70 78 65 41 55 24 11 21 35 63 20 22 53 74 62 74 61 79 71 88 115 104 64 36 61 75 100 85 129 102 157 91 22 79 33 26 12 -28 -77 -94 -85 -68 -5 -7 9 28
57 105 94 67 116 76 69 76 24 26 6 -0 53 30 24 66 127 81 94 68 71 85 75 70 77 67 42 50 85 86 66 61 75 89 64 71 5 -36 -106 -106 -138 -166 -104 -78 -41 -13 -16 12 8
20 29 101 81 59 48 70 55 44 23 22 31 39 37 39 60 101 91 98 65 62 77 70 63 52 45 61 45 6 -19 1 -11 -3 39 37 69 42 27 -6 -58 -67 -49 -35 -17 25 37 2 1 21
64 64 26 87 92 67 84 24 33 19 -1 6 33 25 36 24 59 80 96 81 72 74 80 77 66 38 44 45 27 4 -4 -5 -14 -6 -10 9 50 42 49 19 45 43 22 19 31 23 -33 -12 9
98 73 93 119 65 42 47 43 54 28 5 8 15 30 36 33 20 47 73 94 84 85 84 67 52 54 45 38 31 18 32 29 2 1 25 32 35 46 41 12 18 27 22 41 53 67 51 70 70
109 127 158 148 89 74 56 60 52 -25 -1 32 43 27 38 56 39 50 80 74 76 88 93 82 62 50 37 37 33 24 25 40 34 24 22 30 40 47 32 11 1 22 38 71 92 111 167 122 80
160 113 68 93 101 62 75 81 52 21 28 25 38 32 43 26 33 30 46 89 84 94 100 106 83 67 54 45 43 41 35 31 23 12 14 16 21 29 41 42 38 45 61 85 151 248 269 241 358

GFSSGP_con_3kmhel_093.txt.gz
Helicity
17 14 3 -5 -0 43 -7 55 44 24 48 52 46 49 9 33 30 48 29 53 49 39 71 99 136 136 88 103 102 105 99 118 151 154 167 158 136 108 75 131 129 113 96 73 61 91 97 98 105
11 9 9 -3 31 4 28 104 72 28 50 81 42 40 37 14 34 49 58 83 47 42 61 81 124 132 103 77 150 123 90 139 154 164 173 172 165 131 98 140 140 133 88 65 60 70 68 86 113
-25 -8 -2 52 42 -12 27 103 21 43 62 24 29 56 8 14 50 55 131 63 60 35 61 96 152 111 92 86 89 89 97 126 169 179 188 182 182 174 124 133 115 112 84 59 63 66 72 83 92
20 37 36 35 10 28 71 50 43 15 40 30 10 12 42 56 58 95 134 72 63 44 57 161 185 101 122 148 131 124 190 110 191 190 211 207 196 172 145 160 90 100 110 93 79 70 66 73 61
4 2 36 44 25 4 68 27 54 33 6 37 20 25 29 96 83 110 84 82 82 63 66 128 140 138 89 143 277 73 68 101 201 216 219 214 211 186 157 126 128 122 135 118 83 60 51 58 53
16 22 28 23 18 64 60 32 22 28 8 21 66 29 26 155 122 133 87 73 84 70 88 116 97 91 93 224 214 -40 -103 86 147 236 249 232 218 174 192 150 148 145 144 108 71 54 44 45 32
-12 -0 12 -3 19 10 58 78 61 19 3 -2 34 30 21 107 139 137 97 87 95 86 106 112 88 93 93 192 188 68 117 124 66 245 239 251 215 194 165 135 143 136 124 91 70 52 42 45 23
-3 22 -7 -10 29 4 36 73 20 23 -8 38 17 16 18 96 152 113 116 97 94 104 115 108 119 106 89 104 277 124 73 -141 -44 175 226 256 227 167 205 168 152 122 100 88 69 65 63 58 41
18 25 9 -1 19 38 37 55 9 54 24 12 9 70 60 128 139 101 104 98 72 73 128 109 113 134 116 133 145 78 31 -52 63 194 296 259 160 142 139 130 122 106 90 102 105 93 84 56 40
20 44 -8 27 54 59 6 24 14 12 16 6 5 55 100 90 106 69 96 74 96 107 84 77 115 138 117 103 115 38 60 29 194 245 264 158 147 118 95 150 123 112 108 135 118 83 60 12 17
36 22 -26 22 39 43 42 9 8 7 8 -1 -1 53 20 138 93 65 98 91 100 152 102 101 150 177 124 70 38 57 64 4 113 232 187 182 129 93 139 181 129 105 102 102 89 48 10 16 7
27 -1 -5 -1 32 38 52 7 -6 -10 -8 -6 7 94 45 98 111 86 99 104 113 108 146 127 160 120 97 65 32 51 80 229 169 153 188 159 186 166 131 168 124 118 60 77 55 33 30 13 20
29 14 13 9 25 18 26 42 23 7 4 1 57 49 55 81 111 139 100 149 123 102 123 212 100 78 39 26 71 70 84 159 248 333 248 212 190 183 153 134 122 87 59 46 49 37 24 14 19
28 30 28 5 14 18 60 39 30 42 12 24 37 49 60 88 107 180 103 134 118 117 113 171 39 9 23 27 65 97 74 161 126 233 244 133 226 194 143 130 105 67 65 47 36 44 22 10 26
58 40 12 14 13 23 27 52 48 33 39 37 63 61 66 106 143 168 108 110 140 142 119 133 53 41 11 4 35 71 69 68 163 235 219 229 231 169 180 131 83 90 75 66 60 37 29 10 14
75 48 28 -4 22 22 50 23 -17 113 93 41 83 47 74 102 114 182 101 100 134 167 123 67 26 31 44 32 -1 53 98 109 140 283 280 271 232 184 129 129 126 108 105 77 70 37 18 15 8
77 56 22 -14 76 27 84 11 26 96 68 54 57 64 83 87 150 181 117 132 150 199 89 33 35 32 30 59 40 54 111 156 210 449 428 305 329 190 133 112 133 168 135 133 83 85 38 16 -10
58 36 11 25 29 99 7 11 5 -13 84 47 28 35 77 101 130 199 165 151 159 138 33 37 27 31 66 104 198 189 70 111 599 505 464 459 374 200 91 149 139 157 176 159 106 77 35 12 6
28 61 65 30 25 104 25 3 14 17 -25 57 64 18 50 111 148 203 152 140 108 92 52 33 43 48 70 134 268 280 433 467 457 428 444 462 330 120 135 124 137 163 173 144 129 103 78 30 68
28 48 75 53 39 65 41 19 -0 6 8 -9 21 48 35 114 177 159 153 116 73 100 64 42 46 53 56 71 117 400 354 395 580 581 527 399 324 130 147 169 191 199 240 166 140 119 131 81 55
72 57 70 29 37 57 32 28 -8 -8 21 2 35 9 16 94 155 146 119 115 71 68 117 67 70 54 71 73 90 145 226 311 358 463 435 395 330 282 100 148 130 158 131 201 122 91 157 69 40
46 59 52 84 85 112 1 44 38 27 36 49 47 35 32 69 135 135 108 116 87 58 109 131 95 57 50 28 57 103 143 166 173 223 236 169 207 190 187 285 66 50 82 64 141 65 35 24 4
34 83 92 54 100 91 62 69 20 -37 13 51 15 25 67 69 106 117 96 110 91 64 76 141 126 69 27 40 61 83 122 183 232 238 223 164 263 293 214 223 67 -3 48 57 113 -11 -28 34 -29
75 63 62 92 87 117 83 54 32 -12 34 26 63 19 70 84 110 107 95 109 94 110 53 94 122 109 45 38 52 66 120 157 159 261 282 265 304 248 184 3 -28 -27 -24 -20 -66 -15 43 -32 -65
83 103 99 63 108 122 23 78 39 46 40 22 44 25 60 68 109 105 113 103 105 110 74 53 86 91 81 55 51 72 127 108 137 214 253 311 202 150 28 -55 -64 -101 -67 -48 -8 55 73 -12 -45
59 47 111 53 78 49 14 112 52 -8 45 36 54 34 61 85 109 126 113 98 102 110 89 71 46 74 83 69 92 96 89 138 96 112 165 195 147 76 34 -0 -28 -27 29 -0 15 59 37 19 40
67 65 14 101 31 110 66 32 7 61 29 26 4 24 44 59 81 92 109 103 93 90 78 79 75 57 58 76 61 34 52 59 46 45 75 58 65 20 25 1 58 1 22 14 -9 12 74 67 63
46 25 66 84 90 96 87 56 23 43 11 18 14 17 16 45 45 57 72 94 82 83 64 64 59 64 58 43 60 36 22 3 22 15 70 44 49 23 -12 -28 -25 -8 9 -0 5 29 65 84 108
57 130 114 71 48 74 65 38 55 119 80 56 15 58 39 36 48 44 46 94 81 93 98 78 58 58 76 57 46 52 39 -3 10 -0 39 46 42 49 15 37 33 41 39 52 54 81 108 133 155
184 58 39 90 78 30 36 79 20 45 125 101 136 18 42 49 55 38 65 118 127 138 121 105 77 59 63 84 69 59 55 61 34 30 41 45 42 63 90 79 91 75 67 79 105 127 165 166 185

GFSSGP_con_3kmhel_096.txt.gz
Helicity
6 5 21 18 23 45 47 27 159 151 36 90 102 79 48 38 61 65 87 12 5 44 78 87 125 153 151 124 126 98 88 84 99 100 105 101 119 122 106 64 78 112 89 82 86 86 100 99 110
-1 31 30 -7 22 -3 3 48 90 46 115 127 108 32 10 2 17 66 109 79 60 68 54 107 109 132 129 134 143 119 94 103 136 126 128 98 109 107 92 87 78 79 77 67 76 84 99 89 88
-46 -27 -1 26 14 38 35 56 76 44 74 81 17 -1 43 -2 61 60 76 89 95 67 73 130 121 112 106 110 136 124 79 111 140 141 146 104 113 115 130 98 71 61 74 69 66 78 76 74 61
13 18 19 15 -18 -35 41 112 77 70 -8 83 33 12 18 62 102 195 203 120 93 70 114 139 120 91 69 119 122 77 86 44 122 192 153 129 130 153 145 99 86 63 58 52 76 69 75 57 -0
18 1 13 -15 2 32 35 120 102 52 -0 17 52 38 25 -7 151 180 152 147 98 101 145 127 168 145 117 113 110 266 243 164 31 70 133 85 144 162 162 110 102 61 67 78 66 61 71 40 2
41 21 2 -35 -31 38 45 121 123 50 -0 2 33 92 45 167 139 207 181 126 130 91 94 144 152 126 112 174 220 238 245 223 308 98 77 135 164 182 185 144 107 89 84 86 86 87 54 15 5
1 6 -3 -32 4 -10 25 117 166 99 -6 7 28 -1 26 87 198 202 170 151 158 116 112 133 125 90 96 167 176 158 120 215 232 96 44 161 161 202 205 164 135 114 97 101 76 89 54 21 16
24 16 -2 -38 -22 -11 46 63 87 36 23 48 3 61 60 106 146 124 165 152 149 112 117 83 89 96 125 158 164 133 150 167 161 87 61 256 104 224 230 187 148 107 88 70 93 89 67 39 34
-2 43 23 -42 -58 34 70 52 70 49 32 33 39 44 91 168 151 146 148 115 159 100 124 95 117 82 122 149 154 161 146 183 112 -27 181 285 154 203 190 141 146 97 77 81 91 98 76 50 19
26 65 21 -28 -20 60 74 38 41 46 17 15 7 67 78 117 176 153 136 159 233 192 184 81 115 94 100 137 140 128 182 186 107 129 94 255 178 195 150 136 153 108 98 97 99 85 77 70 27
26 75 21 5 45 46 34 26 17 26 21 17 24 32 63 97 154 175 130 182 110 306 235 114 92 187 154 130 97 137 111 74 100 47 22 165 116 221 218 220 188 136 118 112 97 67 63 56 19
12 20 32 2 15 42 48 19 35 27 17 29 11 36 115 87 141 163 161 184 139 214 246 142 133 187 116 98 62 119 109 77 159 -48 -17 115 193 220 218 211 158 141 136 106 41 23 65 24 23
-0 2 21 18 18 29 16 15 24 24 30 10 11 63 97 73 120 226 210 216 182 181 289 215 192 171 73 73 58 53 86 55 83 53 41 170 244 274 201 193 157 162 106 83 51 51 36 41 19
-15 -1 19 9 32 26 8 1 36 34 35 30 15 83 54 86 110 218 261 142 264 161 263 224 202 127 43 -1 28 29 -47 60 83 239 151 164 260 251 210 185 149 144 87 76 63 73 67 49 34
32 41 41 40 32 8 11 3 -1 21 75 46 56 72 78 37 151 170 261 137 247 259 271 227 196 71 33 -11 16 16 29 49 212 295 372 238 261 192 195 203 116 123 78 69 66 77 57 60 34
112 82 66 38 -6 -16 21 58 -19 -8 50 92 109 86 81 40 120 175 236 141 302 302 238 225 90 18 14 22 13 32 23 61 76 375 315 336 280 215 169 134 89 128 92 65 124 87 74 45 39
108 99 56 29 -10 -6 54 50 -29 38 84 85 78 49 101 114 180 219 189 135 313 289 211 93 28 -1 15 17 11 20 66 102 138 265 262 208 276 211 146 56 73 130 140 152 133 94 37 54 50
114 93 55 38 7 -1 64 57 3 8 75 87 81 51 51 130 164 329 181 266 312 226 158 53 44 38 46 22 20 21 96 115 171 205 290 233 269 221 174 204 210 251 263 222 155 139 110 48 32
89 101 84 40 -18 4 47 68 27 26 17 32 37 117 67 109 187 405 266 222 243 150 130 83 54 65 37 68 101 96 99 151 181 188 244 250 341 373 316 317 231 197 328 230 156 181 145 146 111
49 51 59 77 61 64 64 46 43 47 37 28 12 -10 104 133 302 351 240 160 173 132 137 112 79 84 53 102 131 68 97 159 320 413 474 453 441 498 312 232 245 269 226 183 158 175 225 153 69
49 50 53 88 83 93 52 47 31 4 -11 7 -32 14 54 121 306 358 216 127 161 136 126 107 95 106 94 109 247 224 233 318 341 547 458 489 502 499 396 222 176 205 192 212 188 163 179 156 22
45 34 40 56 122 141 33 54 -9 8 12 22 62 1 87 30 263 331 208 128 139 127 110 130 144 157 96 93 74 161 271 232 287 290 500 602 514 502 407 182 188 195 172 139 136 118 86 97 151
38 13 24 19 19 88 140 150 102 32 3 4 94 86 117 96 232 324 178 147 115 128 119 141 151 169 100 70 56 75 77 126 244 498 605 534 544 304 305 459 464 290 96 98 72 82 118 178 131
25 28 59 86 60 84 56 156 94 59 -26 1 54 113 72 104 239 295 168 168 136 148 116 130 143 147 110 88 93 88 117 182 217 199 210 205 219 183 301 333 248 196 57 8 104 -48 -40 -20 165
58 87 96 86 129 98 13 56 83 17 4 27 110 87 54 107 220 292 221 188 157 163 106 103 109 113 104 109 119 135 160 171 194 221 236 185 156 189 169 173 121 29 -65 -105 -65 -40 -23 5 150
64 93 126 102 66 53 79 129 14 29 29 22 31 47 90 111 196 240 222 173 175 181 104 74 82 84 86 90 126 123 169 187 168 178 209 191 213 186 142 96 88 -55 -52 -42 -32 166 160 122 131
29 78 39 90 38 32 60 74 -18 36 39 96 90 49 68 94 153 161 217 182 182 185 123 62 90 60 67 72 113 137 154 137 172 218 235 203 213 193 155 136 75 49 -44 -39 28 128 106 103 24
119 23 55 65 103 86 14 65 79 62 64 29 12 22 56 66 129 140 183 190 172 189 128 79 76 88 75 56 75 98 128 127 124 121 205 226 210 189 139 111 60 -37 -47 -28 40 58 60 93 73
73 87 48 39 53 81 31 18 46 188 180 152 132 65 72 38 132 158 129 213 167 184 157 116 96 85 121 92 63 83 77 96 84 84 68 88 138 147 137 88 50 29 16 46 67 59 70 68 116
97 20 58 130 99 71 55 49 53 54 112 131 89 71 16 76 49 136 96 199 185 208 181 171 108 102 139 122 121 70 72 64 64 48 29 29 87 103 117 94 108 121 72 62 94 106 128 112 133

GFSSGP_con_3kmhel_099.txt.gz
Helicity
24 8 22 23 51 53 66 84 20 57 87 128 196 237 172 127 98 83 37 38 32 -20 -1 53 90 102 109 115 128 129 129 117 95 96 104 100 101 108 127 124 94 94 109 95 68 75 101 102 118
5 7 44 53 60 27 16 -4 120 98 55 75 97 100 92 67 65 77 87 -17 44 32 29 59 71 74 97 114 110 116 117 132 98 96 104 118 110 106 106 101 82 73 67 67 74 82 98 98 100
-5 30 63 58 40 66 78 22 155 134 94 93 74 60 63 42 28 64 83 59 116 109 121 84 73 75 98 113 111 121 136 132 138 106 98 129 107 116 113 107 81 53 48 60 69 79 82 91 95
49 46 38 64 1 -21 114 75 189 220 163 102 108 118 66 54 107 127 138 166 175 198 164 117 88 86 103 115 110 129 141 123 123 130 107 166 89 90 102 105 76 55 41 46 49 63 64 82 128
57 78 75 62 -4 49 76 115 128 127 146 118 91 95 142 144 276 236 219 203 198 206 217 157 126 95 99 97 105 91 91 148 102 130 89 157 135 57 103 106 72 58 45 37 36 46 67 101 121
86 95 110 52 64 -2 7 161 189 201 176 66 39 75 99 121 195 203 223 211 223 254 202 182 139 123 133 113 103 200 288 227 242 354 136 236 75 47 121 102 85 67 71 38 14 26 95 95 87
49 40 26 20 24 11 32 140 171 182 103 80 62 82 96 207 240 264 239 246 229 166 198 178 136 115 118 138 198 287 333 244 308 249 266 149 34 40 110 117 133 109 95 34 21 57 100 88 98
55 63 -4 -12 -31 -116 -11 47 56 70 48 114 73 111 108 225 291 260 235 186 170 129 118 116 116 86 125 124 195 241 266 248 258 179 186 251 325 35 76 175 167 138 85 36 42 89 127 104 82
23 62 2 -12 -46 -75 -22 59 37 77 112 88 69 111 183 255 223 210 191 198 202 146 123 94 88 82 118 122 144 195 178 140 133 108 168 309 358 27 95 183 187 133 81 46 16 108 90 69 95
55 138 51 -1 -66 -81 -31 33 47 99 68 79 39 83 195 208 173 173 172 166 233 213 163 121 95 100 156 116 107 138 183 171 148 170 227 319 102 99 196 174 187 120 76 55 100 58 62 86 111
72 101 33 -10 -58 -19 -4 39 48 52 67 59 24 60 68 127 125 130 175 232 253 266 237 175 110 114 139 163 142 119 183 172 180 253 317 123 157 173 217 227 177 118 101 135 81 69 86 66 105
61 23 50 45 65 11 -31 47 59 67 41 54 42 42 69 84 117 200 226 322 332 322 288 222 187 150 146 180 104 93 122 179 214 196 122 201 69 240 195 222 163 148 104 123 80 86 50 64 132
55 29 10 20 33 61 40 35 45 8 56 52 60 49 94 113 143 232 321 377 359 368 345 312 220 214 163 145 80 58 84 167 133 143 58 212 260 213 181 184 148 133 130 105 77 60 67 107 100
32 56 33 -33 -19 41 33 62 77 -46 45 80 91 40 124 157 158 305 322 342 321 380 361 318 243 218 165 97 27 25 52 25 28 68 91 233 266 217 191 210 161 134 117 65 82 76 91 84 52
72 86 67 -32 -21 22 6 38 22 29 17 21 120 113 144 169 198 334 315 286 336 435 392 366 306 177 91 59 13 6 -23 23 71 169 67 91 226 154 173 243 165 119 108 70 93 75 87 79 41
162 173 186 73 47 58 71 70 42 34 49 68 207 170 181 205 222 355 342 342 395 404 333 309 191 67 29 25 18 8 4 -3 149 109 205 176 270 176 227 191 154 118 88 97 100 94 101 75 69
191 174 139 94 48 66 32 23 30 79 16 85 119 118 162 184 400 471 437 398 380 342 280 207 66 14 17 17 18 23 44 17 78 293 398 339 293 196 203 169 184 125 117 97 117 123 106 92 66
256 177 147 91 61 70 63 11 85 93 32 67 135 168 156 219 493 490 525 453 378 292 238 148 38 18 21 28 24 37 26 32 30 161 312 372 295 211 167 197 141 116 127 134 145 130 106 85 56
161 134 104 104 94 42 36 3 57 114 98 54 79 145 115 202 497 515 546 472 353 279 228 125 58 56 61 46 39 52 98 59 22 108 250 376 268 225 170 202 203 161 134 142 160 172 125 139 77
101 104 95 46 61 50 59 38 49 20 79 54 23 58 83 439 578 542 514 393 276 250 189 141 83 54 44 63 78 87 115 67 56 180 249 288 330 253 227 308 292 300 239 242 221 203 227 185 128
84 113 125 92 74 89 70 10 57 33 63 36 5 6 84 307 556 479 399 323 257 232 186 169 109 76 44 82 92 129 155 121 164 142 279 440 413 482 365 381 326 319 242 266 214 191 196 205 122
86 35 35 33 98 88 68 -125 34 111 124 56 98 21 76 289 383 396 339 285 223 213 171 173 139 139 49 64 102 138 110 135 83 138 204 355 404 467 488 426 342 223 180 196 221 157 159 108 122
129 54 36 54 88 82 78 43 -63 25 63 8 -1 1 116 320 322 315 343 254 192 221 155 167 173 161 95 12 47 83 154 67 171 177 320 484 478 414 526 516 451 230 301 224 129 110 136 125 124
35 55 52 120 128 80 51 74 -99 37 60 -14 12 18 150 272 335 369 316 286 200 201 150 159 197 151 117 40 33 106 151 186 223 247 325 294 387 481 534 432 490 464 439 399 107 88 154 67 104
61 89 199 184 228 86 63 53 43 50 16 -1 46 139 174 229 380 402 367 300 181 181 160 162 180 145 118 74 62 100 138 190 262 302 268 321 463 421 379 406 362 309 381 375 72 30 94 -7 -100
198 114 267 208 174 54 56 50 11 14 46 67 16 95 175 191 317 321 319 239 199 183 180 156 167 134 136 108 86 95 129 141 180 249 386 557 484 81 110 206 179 97 128 90 -43 -37 -104 29 -64
144 123 134 77 66 51 48 29 25 116 151 87 37 66 128 178 211 274 262 239 198 198 152 141 137 126 105 142 148 149 118 120 134 119 129 114 101 109 166 160 106 7 -7 -44 -63 94 3 8 33
162 133 134 157 88 29 4 28 30 209 133 184 286 140 125 157 200 237 285 277 206 204 185 128 125 109 91 100 133 193 175 160 125 117 122 122 108 132 146 129 66 17 18 -17 -9 33 40 -29 47
119 86 143 192 91 44 -15 -13 20 -15 103 152 124 110 209 112 199 256 313 300 258 221 191 158 117 147 120 93 102 132 164 162 152 120 125 139 108 125 119 103 72 45 28 -17 -25 -34 -17 -12 41
35 88 118 77 103 87 89 57 -57 -50 82 317 225 260 229 122 60 255 307 311 291 243 206 173 154 142 146 110 83 111 120 161 177 145 96 125 124 114 120 88 40 17 31 7 -33 -36 1 41 61

GFSSGP_con_3kmhel_102.txt.gz
Helicity
45 38 36 50 38 39 94 67 41 10 98 48 68 107 84 141 154 182 72 39 97 11 -32 3 39 77 107 104 117 164 162 182 113 123 111 135 133 137 145 148 141 136 132 132 128 117 105 103 143
24 32 57 49 58 65 96 60 29 45 86 98 140 116 132 199 120 99 71 67 46 8 -20 46 67 83 81 101 115 131 137 168 156 155 103 116 124 119 120 127 148 146 118 95 86 88 100 118 153
39 45 54 55 54 50 51 10 11 37 100 127 137 88 82 80 93 89 40 127 64 40 55 95 103 98 93 99 117 127 142 135 152 139 130 101 117 118 110 127 129 119 83 50 67 86 106 137 156
72 63 62 43 34 29 68 5 33 63 104 137 94 71 102 100 152 90 159 168 103 68 107 111 114 95 107 110 127 133 131 162 124 171 266 113 113 97 100 113 103 87 64 58 69 91 140 149 184
93 76 86 14 -27 4 29 108 115 51 127 92 115 85 226 177 161 230 208 192 193 174 161 155 135 121 115 103 119 139 159 140 159 133 178 168 152 131 64 88 92 85 71 55 73 110 151 185 198
138 109 99 46 -16 -13 -21 81 113 146 112 92 124 157 178 87 208 160 230 281 198 216 230 205 154 133 116 103 103 102 97 164 132 207 249 384 191 190 24 79 85 81 77 50 56 77 153 215 183
159 153 83 31 -47 -52 78 -22 57 92 63 57 99 143 156 63 117 300 282 268 240 195 236 191 178 159 134 110 79 119 158 213 333 346 297 121 250 122 22 27 70 111 89 65 58 76 164 177 155
129 164 63 49 -7 -58 -0 8 6 83 44 69 91 106 151 88 252 323 262 205 201 200 182 180 136 151 126 101 122 146 197 240 280 259 303 327 255 94 96 10 97 109 97 59 51 87 121 156 133
131 223 66 72 25 -24 -63 84 -23 39 67 63 52 78 92 353 362 334 240 227 221 183 164 129 121 117 120 127 148 160 224 248 297 195 233 204 200 223 -5 28 96 118 88 81 65 79 104 142 138
191 238 91 89 13 -70 -77 4 20 34 13 62 71 103 147 326 279 279 232 213 200 157 144 147 116 127 146 134 158 185 202 198 277 292 274 231 175 174 162 138 61 117 107 67 57 75 107 188 181
173 176 97 -39 8 34 -8 -50 32 66 53 58 64 59 102 197 185 209 166 198 179 131 212 201 177 173 160 159 143 163 182 161 240 253 182 139 183 169 139 178 90 156 121 68 70 67 101 162 189
151 123 40 16 18 46 38 31 28 86 46 59 66 61 120 130 106 119 160 179 198 200 244 283 267 229 172 176 162 148 197 156 213 217 200 264 299 294 217 269 136 167 121 92 99 77 99 215 140
145 57 60 33 30 41 45 38 72 -23 9 56 80 90 139 192 144 149 173 234 272 296 335 342 341 279 205 177 154 171 130 112 137 215 232 261 261 245 297 241 129 150 127 83 118 68 152 196 118
76 88 69 66 26 26 39 31 1 -47 70 55 40 36 101 222 170 278 295 348 301 332 366 387 371 304 232 172 131 107 96 76 146 201 239 296 271 163 131 198 160 149 123 97 86 146 130 171 152
95 90 101 86 52 31 15 6 -12 -26 25 59 28 6 83 178 283 443 365 385 344 379 384 342 324 276 198 102 85 50 44 52 49 124 149 164 127 274 238 227 170 132 120 104 151 144 139 185 142
161 100 50 108 106 66 48 43 17 -35 -5 38 90 60 147 231 316 358 437 450 426 452 363 303 288 271 129 30 36 17 23 71 31 -34 68 -10 153 187 188 207 121 141 153 147 136 140 124 142 154
165 94 104 100 77 75 82 47 42 3 25 23 69 45 144 260 323 325 430 491 455 388 312 266 234 145 81 28 15 15 -1 3 -47 -22 52 23 191 241 189 193 169 171 182 143 117 161 128 107 163
180 156 139 132 76 57 58 50 105 53 13 20 53 72 153 310 326 395 492 460 408 328 285 256 214 147 82 58 31 30 31 -23 18 34 121 75 229 194 230 173 212 164 207 155 120 152 152 137 180
151 129 80 122 107 86 80 60 89 71 -23 63 5 85 100 234 376 489 533 465 407 303 271 257 231 169 119 60 55 30 51 27 58 133 156 215 245 173 206 159 205 196 165 110 85 150 136 148 162
128 111 40 75 69 66 42 22 58 25 1 69 124 61 109 253 371 500 508 463 334 280 220 268 208 187 109 76 45 61 84 65 3 282 188 308 344 201 196 146 166 184 186 108 86 105 193 166 122
98 93 85 77 61 92 122 58 45 -44 -17 45 86 58 60 119 320 497 458 428 285 273 182 265 206 176 115 86 85 57 90 70 -14 125 439 405 270 225 197 186 194 181 175 136 98 127 146 153 131
67 60 91 96 108 135 116 53 70 16 48 -13 60 -16 34 178 257 400 430 357 265 236 163 250 209 180 119 89 82 45 70 112 -53 -47 350 379 344 352 243 274 199 204 223 166 157 156 168 204 131
114 48 89 87 113 139 148 159 11 14 64 77 16 -22 27 177 357 413 351 335 252 225 137 189 191 174 129 58 67 66 85 70 31 78 190 249 353 315 291 278 273 279 259 220 212 207 230 184 133
92 118 109 124 163 163 171 173 47 36 11 82 149 42 -10 64 255 391 361 324 266 192 157 178 150 168 128 52 32 56 89 115 74 142 188 309 366 447 352 401 367 369 315 240 269 304 166 161 116
87 139 203 238 256 165 142 153 85 -8 61 95 200 112 59 28 341 395 345 292 263 206 143 160 124 145 109 79 37 57 65 80 136 184 176 219 383 430 427 367 395 394 321 253 259 150 204 135 143
55 125 227 242 235 171 117 123 56 14 -8 48 101 148 -63 222 262 323 315 276 215 170 109 143 115 135 75 74 61 73 87 85 109 160 196 257 365 427 296 353 454 379 334 355 266 253 247 92 160
23 122 123 182 200 180 141 134 67 56 90 223 132 160 87 159 187 251 319 198 169 143 93 155 124 119 82 70 57 73 97 112 126 128 146 227 320 418 528 507 562 317 323 279 196 272 109 53 130
81 88 172 219 221 169 145 78 77 60 94 264 326 173 5 10 134 175 199 178 122 123 105 132 121 128 111 67 82 86 104 120 131 156 180 180 273 415 594 304 221 282 244 156 91 -7 -37 -26 104
169 84 119 166 214 134 134 73 -9 76 64 172 149 190 348 65 -5 -9 128 158 149 119 128 142 121 128 117 84 71 78 91 119 146 157 147 139 168 97 78 118 217 180 160 84 -32 -9 -57 15 74
122 184 162 184 241 185 76 37 52 17 -10 -18 41 178 228 172 243 -13 -33 94 172 142 113 133 127 120 111 127 103 93 72 75 82 97 116 145 129 80 60 63 95 105 107 51 14 -25 1 32 60

GFSSGP_con_3kmhel_105.txt.gz
Helicity
52 54 52 58 51 62 106 90 73 35 40 39 83 100 96 80 106 101 90 19 37 64 -6 -64 -31 77 145 181 165 127 124 140 144 135 175 148 199 202 181 184 192 193 177 146 159 166 138 114 140
63 63 71 52 70 84 115 70 53 7 6 63 100 169 112 58 151 123 126 26 64 75 20 -39 -12 67 119 162 189 148 123 109 153 210 373 200 185 177 169 167 159 149 126 148 146 143 123 154 186
81 77 77 69 70 82 142 68 137 63 43 55 89 108 126 56 114 109 17 101 97 94 66 40 32 65 99 145 187 186 154 130 150 195 220 214 174 155 141 130 127 119 96 100 124 124 123 163 181
91 91 99 76 61 41 75 62 38 44 22 18 74 112 117 116 127 105 81 172 158 127 103 68 100 98 106 111 146 174 190 186 206 156 174 218 150 127 96 97 120 105 75 83 92 108 137 168 174
129 102 116 38 28 55 23 14 29 40 18 27 100 96 117 87 125 166 174 157 188 131 140 119 129 133 120 123 131 126 169 215 262 199 263 106 159 205 61 60 64 65 53 78 125 132 169 174 166
172 119 123 39 11 49 38 59 44 55 56 35 141 125 101 79 153 173 237 194 146 197 175 150 153 145 134 137 115 124 136 178 244 333 529 319 121 310 49 29 35 78 81 104 126 143 178 178 175
182 189 94 49 -15 29 70 154 175 24 15 54 119 134 81 61 121 259 253 217 191 175 196 190 182 169 147 130 109 104 140 147 248 310 320 370 350 223 148 35 79 69 104 129 142 154 165 185 157
163 204 111 59 15 9 54 142 118 131 148 26 130 102 73 75 177 281 250 237 219 186 203 208 170 172 155 120 93 91 102 152 300 307 298 252 257 263 61 255 112 41 97 110 142 132 161 165 112
167 234 111 94 67 34 50 125 32 17 83 7 45 93 65 226 293 312 266 219 234 188 202 198 154 146 137 133 108 97 106 177 294 246 245 204 293 229 241 295 204 35 119 115 123 112 152 138 54
218 252 116 98 93 25 20 58 28 63 12 79 40 62 98 258 303 265 258 259 215 203 189 179 140 152 135 135 154 161 159 208 231 307 346 292 220 279 257 233 170 16 113 111 108 123 156 126 97
216 240 129 100 58 40 11 82 83 133 20 102 86 73 102 178 189 169 170 226 236 200 208 153 132 180 184 156 176 174 212 266 257 326 309 268 206 158 234 151 140 68 107 137 127 163 157 94 110
199 183 84 62 41 44 36 40 117 164 24 60 81 95 133 165 182 178 176 213 233 239 200 175 175 234 223 212 189 166 198 292 320 302 263 285 268 195 185 134 130 177 136 163 164 175 125 100 139
200 184 107 83 38 53 65 61 115 15 14 41 76 79 141 165 167 213 163 216 224 278 268 225 232 268 289 278 232 186 185 245 346 274 239 277 231 191 209 157 187 199 180 152 154 165 118 83 93
162 103 89 94 58 54 49 75 136 -79 55 58 59 46 113 151 168 229 208 255 256 271 294 310 305 307 345 316 267 188 166 166 187 177 180 190 229 273 215 196 164 230 170 145 148 180 137 95 115
127 97 104 128 111 56 56 56 88 3 19 11 -2 7 55 129 144 232 273 310 301 305 389 400 338 344 317 281 235 158 133 122 100 89 169 193 229 254 275 259 246 207 239 166 205 217 177 141 106
167 166 123 106 129 109 137 -31 20 13 26 29 -12 -37 -5 91 157 232 265 318 373 393 442 407 340 316 249 256 153 100 74 92 101 121 184 204 281 271 333 330 357 265 257 173 175 191 194 135 140
179 198 199 171 148 119 127 49 19 24 46 66 25 8 39 55 93 235 334 423 450 416 391 388 329 276 227 191 104 77 62 71 87 131 131 153 177 278 373 403 267 210 221 177 171 220 222 176 182
247 234 204 160 109 85 71 32 52 37 20 57 52 24 70 13 117 247 388 428 451 409 341 368 294 242 228 203 120 84 88 50 38 93 149 80 132 163 284 202 187 226 194 190 213 227 249 235 188
166 147 131 153 111 94 70 7 0 18 57 62 91 37 35 -8 51 300 354 385 441 403 351 338 289 226 269 243 163 108 82 61 52 62 68 57 130 194 252 193 218 162 156 166 168 267 266 242 206
157 119 98 92 103 106 51 -15 2 -3 54 88 36 30 19 55 118 227 341 380 389 408 316 317 279 248 221 227 166 128 100 73 65 108 95 178 182 222 222 174 132 175 209 216 202 249 358 281 179
146 125 134 83 83 82 105 14 14 31 82 72 36 28 24 78 168 190 273 360 439 411 324 278 264 219 205 222 181 116 111 105 116 99 149 305 427 239 201 174 204 191 188 209 183 232 286 255 172
105 138 108 107 116 113 93 54 16 34 46 56 35 23 21 75 135 155 218 329 390 400 279 253 267 185 204 213 177 86 92 135 162 124 255 266 240 219 210 206 239 215 206 208 220 187 200 256 184
116 90 106 122 183 195 129 131 -43 57 63 44 89 126 19 28 133 185 261 358 386 319 258 236 272 145 204 176 137 79 74 82 125 130 318 313 230 301 240 242 219 244 243 238 209 163 160 196 214
134 115 162 190 198 142 122 173 -36 62 48 40 52 115 136 49 73 114 215 334 389 249 222 237 252 121 169 145 93 70 69 85 91 128 283 404 310 283 340 219 181 191 219 216 204 179 153 175 165
207 230 251 237 272 157 44 131 117 70 21 27 59 94 151 48 79 105 231 345 327 249 213 222 194 114 139 125 87 55 68 61 61 118 109 274 271 239 211 224 187 204 215 237 278 282 241 237 170
200 222 278 266 245 179 144 129 105 29 43 7 162 172 151 151 144 163 227 315 290 260 200 210 145 111 118 115 100 64 58 61 65 99 88 156 185 293 377 292 331 348 335 342 294 383 319 262 240
95 200 98 143 125 131 114 143 122 86 42 120 203 367 356 80 24 72 165 189 238 209 190 212 122 102 103 125 127 77 56 61 82 107 148 185 247 338 323 360 297 337 225 275 301 324 194 181 281
180 139 154 191 151 120 132 128 103 72 65 88 149 315 344 243 107 31 126 86 91 129 188 172 107 86 107 126 129 107 71 59 72 110 157 196 283 392 450 510 397 289 440 444 365 307 231 169 152
153 129 119 135 159 143 140 133 103 48 60 88 191 226 296 332 57 10 67 78 36 54 112 129 111 94 111 124 120 124 98 78 86 89 107 138 207 214 330 409 498 301 307 238 316 224 172 91 89
62 100 125 194 223 190 157 124 161 107 99 108 81 102 348 226 235 116 54 91 43 29 56 64 64 95 116 129 129 113 115 97 82 87 102 132 181 151 266 364 459 208 260 196 203 151 119 94 62

GFSSGP_con_3kmhel_108.txt.gz
Helicity
57 60 70 73 75 89 97 89 42 52 39 10 32 48 42 67 85 53 71 33 36 50 43 9 -17 31 100 159 223 203 156 144 178 207 235 209 169 176 194 216 181 174 152 122 132 148 146 124 125
73 75 92 75 104 111 118 71 75 48 -10 18 42 58 60 44 93 91 121 16 61 78 57 49 36 62 107 126 182 205 182 154 144 140 181 190 267 197 184 204 174 157 130 127 139 155 151 139 155
88 103 87 79 88 100 133 74 127 73 23 43 60 50 50 48 73 67 10 103 123 107 98 102 94 83 121 126 136 162 203 191 215 211 179 221 258 224 179 160 149 136 122 114 126 151 145 165 204
90 131 117 105 61 45 96 88 80 115 71 45 58 80 62 80 82 67 99 121 180 121 113 138 132 121 152 148 138 144 180 229 206 191 248 199 205 152 119 100 106 103 99 92 123 153 146 165 189
125 139 156 91 40 53 31 11 41 39 16 24 66 64 74 64 46 84 130 188 167 123 148 126 131 128 157 155 156 149 155 170 234 198 175 144 177 109 90 78 78 65 73 87 131 155 166 179 176
165 148 160 84 51 42 45 18 47 36 17 -36 49 108 67 73 82 87 132 188 149 191 167 131 128 122 153 151 142 157 178 180 178 275 299 340 157 260 208 58 76 53 85 103 136 181 189 159 158
168 190 122 90 9 49 70 56 99 186 192 71 49 132 63 46 84 142 184 169 183 166 183 153 151 130 153 152 141 122 154 149 249 294 275 399 273 346 245 109 140 51 70 83 140 181 168 144 140
177 197 140 68 34 14 71 98 130 205 190 105 43 137 70 41 168 201 195 181 180 183 163 157 176 157 151 114 151 125 118 208 299 277 329 274 261 229 319 207 157 40 42 87 151 182 148 136 132
186 233 183 98 110 48 51 146 119 123 157 168 97 115 13 51 202 266 246 225 224 200 187 174 193 162 146 105 136 118 123 214 272 291 293 456 313 219 302 223 174 57 137 130 188 178 135 124 113
249 244 210 118 117 81 57 69 46 124 155 121 155 91 72 101 185 250 239 224 240 219 204 199 187 151 129 98 151 162 170 200 263 315 314 310 323 159 165 214 125 230 180 218 188 172 138 142 131
242 247 248 143 100 72 54 74 8 55 108 83 110 154 111 114 104 171 192 236 252 227 239 218 184 155 143 111 157 192 225 261 287 322 305 272 234 209 130 193 183 193 210 212 174 193 181 150 121
197 167 164 104 110 105 72 22 37 42 45 118 155 148 118 131 140 152 168 214 283 274 252 236 230 206 162 140 193 225 242 240 277 322 343 331 270 225 240 235 169 149 225 182 193 185 157 143 117
155 166 146 114 77 96 75 25 42 51 -25 106 166 130 114 108 109 120 141 193 228 257 286 288 280 263 224 215 267 277 290 242 199 304 337 311 288 249 269 226 120 196 210 213 201 189 145 145 127
122 55 62 109 108 91 90 32 74 13 19 57 129 160 116 105 98 106 123 149 252 235 284 323 333 305 278 281 325 324 298 231 236 286 305 286 256 239 219 167 153 226 186 236 219 183 152 136 141
96 102 117 116 141 132 64 48 81 23 53 57 66 93 72 53 57 109 135 151 273 257 317 335 348 329 294 306 341 327 236 176 164 227 254 229 207 192 165 124 164 183 228 277 277 254 182 153 144
143 122 120 101 148 169 115 -48 84 82 86 53 58 64 54 53 46 89 133 130 229 318 345 364 354 313 302 316 317 262 187 123 93 92 133 164 204 212 189 168 219 223 257 286 260 262 188 134 142
189 168 127 102 97 124 149 52 55 86 57 53 53 61 51 60 64 62 59 125 272 338 394 380 362 313 317 298 288 214 165 121 79 92 97 149 127 194 249 246 277 266 299 278 262 284 208 187 191
243 215 160 132 134 102 99 61 41 24 45 45 57 69 38 46 68 30 52 149 252 310 333 376 353 323 315 274 258 191 154 143 109 84 153 122 84 170 232 290 253 248 279 276 292 337 265 188 171
151 145 100 118 83 109 79 25 27 25 35 53 48 54 27 24 15 33 39 136 258 254 367 417 393 333 329 263 284 210 199 166 127 95 89 229 149 166 251 367 331 319 264 286 289 385 270 247 219
169 120 91 96 94 81 64 -3 5 -10 32 41 40 46 53 46 41 82 35 129 169 197 351 425 378 318 283 217 273 233 228 160 134 81 117 184 106 102 255 357 352 312 344 314 322 356 352 282 198
141 146 162 116 91 63 69 -23 -7 35 84 86 81 70 81 53 52 112 119 154 198 263 347 426 339 254 248 229 308 233 219 195 154 120 142 167 162 242 257 313 378 288 274 254 289 378 358 296 219
124 167 173 127 120 92 58 -34 -97 -10 44 76 78 62 82 64 59 94 133 182 214 276 411 406 287 192 200 224 306 236 216 155 151 159 133 165 261 242 215 210 216 215 223 238 319 369 373 332 279
118 98 109 140 146 132 148 121 -77 35 90 87 105 97 89 88 100 74 132 181 252 359 381 323 245 168 193 190 255 183 141 107 133 157 135 200 337 234 167 200 172 199 219 258 272 318 328 281 310
162 156 114 139 167 157 144 145 -11 -10 6 75 50 97 116 94 85 123 124 188 225 281 311 295 214 169 187 176 218 141 107 95 142 134 155 231 351 330 274 213 195 216 254 267 253 274 294 275 243
206 222 226 215 244 219 9 168 103 91 52 51 12 51 90 163 192 128 154 179 212 238 295 254 193 202 173 175 156 115 85 92 161 141 126 277 230 256 193 177 176 228 212 266 266 266 255 234 215
164 162 263 223 201 162 152 105 88 -13 72 62 32 -4 67 180 218 247 174 167 124 142 263 214 194 197 160 173 82 102 91 96 127 133 118 228 216 258 201 173 197 234 229 181 230 267 262 234 246
178 175 180 228 185 155 149 179 189 104 100 113 111 43 27 144 177 226 299 178 71 103 206 127 129 138 123 144 73 102 107 104 111 117 120 144 210 254 212 164 184 97 169 282 219 239 251 214 264
211 226 232 224 173 159 130 127 115 73 63 127 116 64 25 67 195 181 182 246 95 147 173 120 101 79 70 64 26 80 101 113 124 147 110 125 148 112 198 300 365 269 287 289 242 278 257 315 301
174 189 212 154 148 148 127 70 102 101 116 134 128 103 86 43 107 203 83 163 169 192 144 123 98 78 75 53 48 28 60 80 106 124 132 127 139 182 224 255 374 222 299 297 309 226 178 212 235
148 170 139 265 206 179 122 104 104 85 152 121 128 80 82 64 150 136 92 109 193 159 129 90 96 75 70 68 70 58 49 70 72 91 113 125 107 116 162 355 297 408 281 241 362 337 158 244 176

GFSSGP_con_3kmhel_111.txt.gz
Helicity
65 78 74 77 50 66 77 88 43 48 43 11 32 19 17 28 37 47 33 14 17 74 62 62 65 75 64 85 96 120 141 165 155 167 194 218 211 193 172 149 142 109 92 93 91 95 115 118 128
78 94 102 86 75 80 84 74 62 56 15 3 -5 10 30 39 22 28 43 -3 31 72 95 90 113 111 109 89 89 94 113 148 153 184 160 148 178 200 205 169 164 136 101 91 101 117 123 119 139
103 108 86 93 92 84 94 68 86 78 44 6 31 29 44 38 15 25 12 55 57 95 91 115 131 122 137 96 101 101 111 122 107 155 185 167 154 183 219 191 178 106 89 90 109 130 141 139 155
109 129 116 94 55 59 65 88 85 91 64 37 78 79 43 23 43 28 54 84 96 93 116 132 145 141 141 137 128 133 131 133 152 204 186 172 110 113 117 189 141 86 91 97 130 143 175 164 173
148 143 130 77 52 55 26 20 57 75 56 48 59 54 46 31 44 35 106 113 114 106 131 146 141 158 139 150 157 166 154 126 89 107 133 134 146 167 46 91 96 95 95 112 122 163 171 170 174
152 149 131 52 38 38 30 40 45 56 39 46 83 25 31 37 37 56 108 110 138 133 132 155 134 155 136 143 146 178 168 87 79 128 177 263 143 44 126 95 108 96 91 90 127 152 154 164 178
150 156 131 79 19 45 57 73 95 107 135 143 89 144 36 32 37 82 112 135 160 145 150 155 152 137 135 134 149 161 165 115 122 187 219 201 154 165 240 163 201 157 184 106 127 123 148 144 155
161 153 142 99 21 7 41 93 101 125 227 175 151 208 123 22 15 79 115 147 171 159 137 137 143 145 113 119 141 141 180 153 214 249 261 237 346 284 313 167 127 138 144 112 101 134 159 142 163
183 180 151 109 103 68 33 110 133 118 186 236 182 155 97 53 30 61 141 165 200 188 152 145 132 136 123 120 111 126 213 213 218 245 238 214 261 345 248 191 54 189 158 104 110 158 153 156 147
217 196 170 121 106 81 64 81 113 99 134 178 169 128 123 103 69 103 115 157 209 210 185 153 133 133 147 133 113 98 183 239 250 225 191 231 221 214 242 190 162 151 153 173 139 190 170 119 100
233 194 189 121 75 71 56 57 45 94 102 89 164 153 152 135 105 78 78 111 202 214 212 195 143 134 158 159 146 132 188 269 271 292 253 220 217 213 239 259 166 156 165 141 127 197 202 104 93
191 152 126 91 68 69 59 42 57 57 80 78 65 74 102 120 123 87 65 109 161 217 208 192 174 184 177 179 187 186 224 282 305 315 289 249 220 229 195 229 237 158 178 214 182 245 179 104 84
145 143 110 73 51 52 59 41 60 50 39 84 98 91 97 108 122 99 48 64 135 166 213 209 215 212 235 231 229 251 254 280 301 304 287 239 196 186 181 169 120 129 268 217 235 168 163 98 90
136 104 79 77 59 63 39 35 56 27 33 50 90 88 85 101 110 85 18 76 154 139 190 240 244 254 237 263 265 276 289 262 251 269 250 241 183 187 147 155 119 255 223 184 205 150 181 99 88
103 94 83 90 89 81 39 -14 27 48 57 63 70 70 73 77 96 73 -46 42 77 184 170 252 295 307 260 248 268 283 283 251 244 209 209 178 232 220 146 171 219 202 157 177 213 134 171 115 97
115 104 68 79 46 115 100 -18 33 70 25 16 51 73 78 69 74 73 42 41 60 98 143 236 335 349 292 283 263 277 269 254 216 194 181 160 167 215 185 165 157 179 177 171 193 181 172 131 109
127 107 105 118 48 69 73 32 40 63 74 85 77 76 67 66 64 47 46 50 41 76 125 198 291 329 310 289 282 272 219 216 171 164 161 138 153 196 184 137 112 170 199 156 205 188 158 145 111
110 107 95 75 80 79 51 43 65 72 54 41 52 54 62 53 48 53 58 62 44 91 114 162 275 310 311 324 285 254 204 181 138 124 125 115 141 205 217 89 137 182 241 222 174 235 167 150 131
116 89 79 101 118 92 72 51 57 50 48 47 55 51 51 33 38 44 51 41 35 62 110 157 243 311 366 381 290 241 193 196 156 118 131 108 151 191 226 307 210 198 254 206 216 257 228 227 162
106 80 62 75 79 94 61 56 51 38 40 49 58 52 40 34 41 53 36 33 48 49 82 152 220 320 327 290 253 230 193 202 173 100 100 91 98 94 112 217 313 342 244 306 293 272 284 277 182
100 96 81 73 54 56 79 26 37 25 16 39 48 25 43 75 96 96 63 63 89 61 100 156 248 330 326 237 245 265 200 217 236 121 78 91 95 139 90 103 260 356 335 313 309 309 253 300 191
93 94 55 52 73 86 75 23 60 132 62 73 73 129 138 133 122 93 79 71 102 103 103 165 254 317 293 255 225 220 181 210 213 116 105 101 128 157 145 201 222 296 287 293 288 277 246 293 264
112 53 38 21 47 102 82 119 31 19 34 97 120 148 168 142 126 120 85 66 93 100 152 176 216 258 251 204 228 204 160 184 164 124 124 159 148 188 214 271 337 300 305 297 327 290 261 290 318
131 108 87 88 80 136 99 126 -2 -1 14 91 135 140 109 136 138 152 130 45 88 100 140 160 266 225 184 165 193 150 126 129 134 113 148 173 199 200 301 278 281 244 283 308 315 315 282 300 281
126 140 164 163 214 150 96 124 132 75 16 57 62 71 77 90 134 151 124 79 108 105 64 127 198 194 129 126 126 113 87 68 76 77 119 192 186 261 344 228 232 213 251 212 208 222 271 284 269
144 173 234 208 187 112 109 74 133 7 78 103 103 73 80 98 66 80 110 34 76 109 83 108 148 160 128 112 110 92 63 53 37 69 109 165 202 292 238 162 152 107 151 189 212 251 304 259 290
215 161 138 165 166 119 107 94 85 110 174 122 139 153 119 85 71 62 56 44 45 91 121 140 152 136 111 101 120 87 60 45 46 79 89 141 196 254 232 233 172 166 192 180 132 184 254 254 258
136 120 199 174 206 188 136 133 110 86 151 115 137 133 103 47 61 46 76 65 77 96 147 140 145 109 90 95 113 71 66 34 43 54 69 128 157 271 138 85 142 195 166 148 180 183 185 170 193
108 188 195 139 185 157 143 124 122 124 74 138 132 115 95 69 39 53 80 108 129 99 157 148 200 112 82 76 93 85 68 34 36 55 66 68 138 168 99 80 126 144 149 197 270 333 283 307 318
65 57 199 196 167 170 145 123 103 13 34 76 68 47 51 74 54 88 87 125 130 139 145 173 208 99 69 74 60 73 61 43 33 42 32 44 73 135 161 232 180 205 304 116 176 291 242 223 250

GFSSGP_con_3kmhel_114.txt.gz
Helicity
53 41 32 31 43 57 37 62 50 52 42 31 23 21 11 23 64 85 56 55 22 59 41 38 56 65 71 55 45 53 77 103 137 155 156 177 144 129 147 127 97 94 85 70 72 72 80 95 96
50 58 50 67 63 47 43 76 46 55 75 57 24 5 5 26 21 36 46 32 28 50 47 58 95 100 99 74 59 55 68 88 116 146 168 174 147 142 120 116 108 86 86 67 65 74 82 101 122
54 53 67 80 52 23 45 77 56 93 44 39 34 4 20 34 23 39 46 58 39 51 51 97 121 119 128 99 79 69 59 81 100 136 133 138 125 101 180 3 109 105 87 97 77 78 102 149 141
69 88 91 77 29 40 55 82 107 73 56 26 20 63 31 39 41 25 60 94 70 61 69 138 125 128 139 119 102 92 74 90 99 78 139 172 118 116 59 50 108 95 102 76 88 113 142 159 151
75 108 74 52 13 33 68 72 69 91 98 40 17 85 66 44 36 36 65 99 92 96 99 123 125 122 139 138 129 117 87 95 108 87 127 110 233 68 115 29 -11 81 102 109 96 117 155 145 156
81 127 81 46 19 45 43 58 44 64 60 22 37 45 38 78 39 46 45 80 103 130 129 135 130 107 122 142 148 144 100 79 58 110 113 245 193 68 146 60 61 126 139 149 139 147 150 155 161
62 72 56 46 33 48 35 80 70 49 74 30 53 67 66 102 75 41 45 76 90 133 155 155 139 105 95 114 137 146 91 79 94 144 158 169 165 185 46 97 126 111 147 120 169 208 160 157 162
83 93 56 63 19 14 52 79 84 68 101 125 130 120 113 156 90 48 32 56 88 136 165 173 147 124 96 102 104 129 92 80 131 194 189 170 157 91 92 172 131 107 118 139 177 164 211 153 168
130 105 64 53 20 34 42 42 104 141 115 153 199 209 242 155 110 89 64 56 88 132 178 172 152 131 103 95 104 102 109 98 151 188 197 172 134 122 132 200 181 116 118 177 227 145 177 167 168
139 102 54 53 45 44 50 52 90 95 74 95 139 165 163 177 122 103 70 72 73 110 178 168 157 146 120 115 101 107 115 112 94 125 150 119 147 138 115 216 149 159 155 149 158 131 166 86 91
127 85 71 83 54 40 45 38 60 100 99 68 94 155 156 140 120 106 84 57 52 68 116 137 150 153 155 147 128 129 153 131 114 122 161 156 175 152 99 100 124 169 178 122 96 102 65 66 73
109 105 87 83 39 40 44 47 63 69 84 95 130 121 136 111 115 109 97 61 53 66 93 120 133 156 172 173 145 162 235 230 234 170 123 165 150 122 60 64 125 250 190 92 93 96 73 74 74
73 76 82 56 59 48 48 52 58 59 81 49 95 95 101 100 84 90 86 84 78 82 91 115 135 166 190 195 184 203 244 272 290 262 178 139 107 93 79 69 124 178 192 158 93 98 111 101 101
140 77 92 74 59 55 52 44 41 59 41 40 58 66 97 64 60 95 114 97 85 80 93 106 133 158 202 209 215 222 252 265 306 295 197 140 118 91 77 92 98 181 191 164 189 150 126 136 89
96 84 64 51 48 48 28 25 31 35 31 27 40 60 73 86 95 111 101 101 88 76 90 113 111 160 203 197 195 216 229 257 293 279 189 117 56 112 101 46 43 109 125 167 192 180 112 78 97
53 71 79 79 66 15 43 31 84 100 58 70 54 53 73 80 92 92 77 76 94 80 80 122 123 152 210 204 215 205 218 255 257 255 197 127 92 69 72 78 91 140 169 185 184 146 95 64 89
71 85 96 90 96 44 40 48 50 126 68 43 57 47 70 79 83 66 53 52 67 51 50 118 109 142 183 215 229 192 193 238 243 228 186 109 111 92 61 86 103 142 199 115 141 133 69 78 88
53 33 21 38 69 17 52 40 57 67 31 44 75 91 93 88 69 44 60 63 50 46 37 91 93 118 167 268 275 232 193 209 228 182 177 117 126 110 100 131 169 167 238 115 143 177 71 70 90
57 62 44 67 66 105 67 66 78 65 50 63 64 58 58 61 48 46 69 60 55 54 34 51 98 129 262 344 370 271 230 228 202 168 165 158 132 137 127 178 111 174 190 117 147 90 54 79 105
36 49 45 69 64 55 64 69 56 61 62 55 54 50 42 39 48 55 63 55 67 51 37 47 77 139 231 274 248 215 245 211 196 198 182 152 127 137 156 179 140 256 219 150 155 136 121 121 143
74 61 63 60 87 33 36 62 56 29 27 45 38 27 41 72 86 101 88 69 55 63 48 51 70 127 163 183 216 191 185 200 206 183 169 141 141 122 149 169 264 391 275 268 171 138 110 204 180
81 66 59 51 34 60 30 50 71 76 86 52 56 84 94 126 109 85 79 82 63 77 85 82 82 107 124 170 180 187 169 163 176 144 117 105 76 97 127 175 204 419 307 192 235 185 176 178 175
55 71 65 38 58 70 73 83 57 93 42 38 94 125 94 77 80 87 84 68 88 97 128 95 101 95 141 148 154 146 108 144 160 114 90 77 93 84 104 128 210 256 255 363 268 207 229 203 169
85 99 82 85 99 103 72 103 99 83 75 52 60 74 100 115 101 82 87 75 116 109 120 98 67 118 174 176 170 122 111 147 152 111 90 92 131 130 136 142 259 305 345 305 314 279 225 230 215
75 120 170 164 209 137 78 97 92 98 70 92 82 81 101 89 77 89 102 84 73 100 93 106 77 157 181 192 168 94 98 130 94 87 71 114 164 178 177 168 237 357 409 390 335 326 284 188 178
78 96 210 190 188 140 102 122 122 26 66 107 52 81 88 65 66 79 83 74 91 80 65 88 111 125 149 176 123 73 94 88 66 58 83 86 111 122 162 257 306 269 277 339 327 298 306 170 204
60 103 57 95 79 168 112 78 80 93 67 94 79 86 74 70 60 37 24 58 97 75 55 64 111 95 132 142 94 83 91 59 53 58 77 92 94 153 237 304 258 270 295 305 291 384 385 236 204
9 27 76 90 162 119 122 78 91 64 111 71 79 89 76 48 31 28 27 33 57 60 48 53 90 120 134 135 91 86 86 52 59 59 77 91 112 147 208 173 137 180 198 238 262 252 223 160 206
40 78 46 42 89 135 141 105 56 37 7 44 79 86 80 58 31 20 28 42 51 42 54 63 106 165 147 147 101 88 61 51 65 55 70 70 117 164 186 159 147 144 107 99 123 142 145 162 137
4 -1 26 102 75 118 80 91 122 76 17 53 101 120 99 68 46 40 50 55 105 61 57 80 143 191 175 115 103 85 56 50 70 65 61 75 114 156 196 156 88 25 71 44 -44 104 95 120 174

GFSSGP_con_3kmhel_117.txt.gz
Helicity
28 8 -6 20 35 39 -11 9 39 66 66 -3 12 17 -14 37 30 43 27 81 121 98 57 40 63 63 60 58 53 56 61 97 109 110 96 97 97 91 96 69 71 61 54 69 65 51 56 71 93
0 19 13 40 51 12 4 19 65 11 89 88 27 60 49 20 68 78 56 69 72 73 65 60 50 50 53 55 52 53 69 98 108 101 105 94 98 106 91 72 83 52 60 73 68 50 61 85 108
-21 11 50 37 30 18 9 60 56 55 147 42 41 15 14 6 50 47 89 56 43 63 52 103 71 64 70 72 60 53 65 84 99 87 83 76 86 77 101 103 13 21 71 66 74 76 72 104 116
25 57 63 61 19 -5 27 60 39 81 50 38 10 49 25 56 52 15 64 55 45 64 67 110 88 66 74 95 81 63 74 75 90 89 64 78 104 179 139 53 35 -12 47 59 58 80 105 123 112
17 59 38 26 13 15 39 47 70 57 37 46 7 22 17 72 51 58 61 58 59 82 133 95 103 83 81 97 90 68 62 76 83 61 90 140 260 129 -9 -20 38 15 9 62 98 113 117 126 109
59 46 45 34 6 -5 32 58 42 48 33 29 17 -10 31 81 45 85 60 82 69 104 138 123 110 97 88 105 96 71 66 76 71 73 118 319 251 61 128 118 138 79 -25 69 125 135 155 116 101
50 45 34 32 33 40 54 33 51 41 19 25 45 14 14 113 179 97 77 65 73 116 127 136 130 103 87 88 104 75 74 71 72 48 178 255 225 58 81 114 129 54 22 117 117 166 184 167 110
63 60 49 40 48 25 43 54 47 17 13 88 53 46 14 201 133 95 93 66 68 94 114 142 148 125 96 79 101 78 75 82 85 93 167 207 153 89 38 33 61 78 92 108 143 180 183 166 137
58 99 76 57 33 19 23 92 29 28 28 84 44 76 129 149 143 118 116 89 71 84 94 128 140 126 108 75 90 87 79 88 110 122 167 189 90 83 63 33 118 127 113 116 159 209 214 155 129
103 108 52 46 43 42 64 42 23 54 43 44 65 84 171 144 126 125 111 124 84 82 88 107 113 122 121 89 92 84 81 93 92 139 147 104 83 83 102 90 112 142 146 108 167 176 205 76 67
91 76 79 42 18 49 70 88 24 38 35 13 23 44 57 78 121 108 99 85 82 71 79 77 103 116 129 128 118 96 68 95 97 113 168 108 96 83 113 136 96 122 120 113 125 167 45 34 74
65 53 72 56 54 49 56 48 90 37 38 32 44 35 91 97 117 102 87 60 60 96 94 82 98 113 150 121 124 104 109 116 125 136 178 161 137 100 101 134 85 122 138 145 118 62 52 59 62
65 43 40 42 46 92 86 74 67 84 40 37 53 51 62 84 87 94 72 40 62 69 121 112 80 124 140 115 118 115 132 152 158 173 220 200 164 116 124 128 109 124 156 144 104 102 61 62 64
89 42 39 34 68 58 66 69 67 63 42 44 37 76 84 62 75 47 70 70 80 78 129 130 104 113 161 146 140 186 134 155 207 215 215 183 157 120 77 71 111 122 152 164 211 122 98 106 78
52 72 76 76 74 83 50 66 60 49 41 37 44 51 57 48 39 43 46 46 44 89 112 129 136 135 139 166 164 178 152 162 186 206 201 189 140 100 74 65 111 148 187 205 207 111 121 95 87
66 40 61 43 -10 5 3 20 62 24 28 41 35 38 50 52 42 39 47 49 36 63 99 105 128 164 146 166 131 149 166 188 189 194 192 157 123 83 66 72 103 154 156 220 198 135 123 146 104
43 50 48 48 7 30 64 49 21 13 18 50 39 45 50 63 49 42 44 46 21 57 79 112 124 153 156 170 129 141 185 167 213 200 199 163 114 72 69 84 88 129 172 171 189 148 149 161 72
28 38 27 21 19 42 7 26 28 38 36 55 54 33 44 36 36 39 35 26 24 52 108 108 138 136 176 172 128 151 221 199 226 185 206 164 124 87 50 84 104 147 200 181 205 191 139 85 96
34 59 74 68 35 8 18 34 44 12 17 29 39 42 38 40 41 31 27 26 35 74 99 79 95 115 189 146 188 286 252 247 207 163 166 174 185 102 72 61 111 144 220 187 182 176 93 72 71
32 42 29 16 39 65 38 29 38 65 58 35 33 35 45 43 30 28 26 39 72 107 80 70 78 82 144 191 242 210 187 167 145 144 166 164 194 159 99 92 141 196 267 219 225 211 188 137 101
69 78 34 35 25 29 23 34 35 21 23 16 23 28 36 31 29 23 28 42 117 83 87 68 88 84 161 251 178 136 164 248 217 195 176 186 187 200 145 139 127 171 208 328 219 186 222 183 83
133 48 37 64 83 89 19 42 21 -5 -19 6 14 28 30 27 25 53 92 108 82 84 78 74 91 74 203 192 111 139 165 203 153 146 133 179 192 192 148 155 156 184 243 251 235 202 214 131 117
77 35 43 31 37 79 72 57 47 17 41 20 13 23 24 91 121 90 65 64 47 70 89 78 99 91 174 115 105 137 128 128 135 117 154 154 171 138 130 161 182 177 299 342 355 224 173 167 191
87 76 31 54 62 89 44 79 51 30 21 18 99 118 166 122 90 79 72 100 64 200 130 110 119 123 168 103 93 104 125 145 165 131 141 162 150 118 150 179 207 203 214 317 379 346 203 171 180
35 66 198 150 165 133 47 58 71 37 48 53 52 72 63 64 84 92 103 95 83 99 110 109 105 140 154 113 88 115 129 144 142 127 131 156 173 191 175 212 215 237 217 294 464 374 269 213 209
41 47 131 194 214 106 34 74 35 22 45 46 118 114 81 78 74 89 97 81 79 92 71 74 80 133 156 121 122 138 150 141 120 112 126 129 128 122 126 172 187 147 200 293 354 408 300 327 299
16 62 20 51 42 58 32 53 28 29 28 138 72 91 78 90 109 98 48 68 76 87 87 88 94 123 139 119 127 135 133 104 83 89 106 114 146 124 122 140 148 130 206 292 332 414 290 362 334
12 41 46 77 88 82 53 34 53 15 56 112 60 71 99 89 89 80 70 61 53 39 51 66 99 121 97 94 120 107 89 82 89 102 136 121 129 126 136 158 150 227 245 362 327 323 297 330 359
45 31 39 45 67 65 71 46 30 24 70 93 59 91 113 100 65 59 52 44 59 46 33 52 91 115 102 135 132 122 90 75 89 104 105 95 119 116 139 128 130 189 275 262 315 316 310 459 342
128 -15 9 95 43 58 45 37 79 80 94 56 171 103 88 84 83 60 29 28 47 91 69 42 69 120 117 178 185 155 108 95 92 101 92 106 113 133 157 114 116 162 150 185 246 238 294 288 262

GFSSGP_con_3kmhel_120.txt.gz
Helicity
29 2 4 33 64 54 17 -23 15 14 81 84 122 70 57 81 139 132 114 133 166 143 120 43 44 57 62 59 52 54 59 74 90 89 67 42 51 48 61 73 86 58 47 54 50 50 74 64 80
7 4 26 51 81 60 14 14 -83 65 145 168 136 86 96 60 62 59 129 102 122 120 63 42 46 50 48 44 45 44 46 64 83 84 62 35 42 32 19 59 54 36 42 47 43 57 56 65 67
-33 -27 60 75 67 45 -6 30 31 131 161 135 79 81 35 25 116 69 151 60 111 102 45 64 43 37 43 44 48 50 49 59 71 65 54 42 145 226 192 175 148 108 52 34 50 60 59 69 66
20 55 85 104 31 -11 -18 96 28 48 89 87 67 58 28 109 81 94 124 66 117 92 103 73 57 45 50 53 58 60 52 44 51 52 42 101 205 152 128 202 56 96 91 8 35 50 60 69 64
24 68 79 70 35 -1 36 46 36 68 83 35 29 16 44 125 64 76 112 105 120 203 121 74 77 62 66 63 65 70 57 53 50 48 66 190 176 88 100 161 155 161 135 100 -3 53 69 85 63
69 55 94 79 16 -30 -21 -4 69 79 99 31 39 3 80 113 149 125 106 172 156 243 115 89 84 77 75 72 82 87 72 67 74 74 148 166 95 74 13 81 95 56 -24 2 -6 85 95 74 55
64 66 69 45 44 54 47 14 99 78 22 17 29 17 16 143 205 187 144 231 191 231 128 91 88 79 79 78 78 99 98 93 92 108 175 150 111 88 56 62 109 58 -6 -34 53 79 92 64 52
71 82 57 61 55 27 21 37 14 38 32 26 40 56 29 248 207 204 207 228 198 209 125 87 97 90 87 80 73 92 100 108 123 142 144 156 132 86 67 64 102 51 -16 49 77 86 93 66 58
44 117 121 66 51 31 21 31 42 88 14 6 82 75 80 97 86 139 215 216 200 185 131 91 99 94 87 84 76 99 109 115 124 161 175 157 118 82 105 43 23 24 32 95 68 80 96 84 55
79 138 98 61 43 21 14 27 88 67 5 40 57 68 91 68 60 118 186 217 185 183 159 130 105 103 95 70 108 100 99 97 91 143 192 153 97 95 99 58 84 55 74 97 82 114 137 125 107
62 97 65 74 20 39 70 60 56 46 58 42 61 84 78 93 96 58 87 123 123 144 167 141 126 137 118 81 112 99 102 100 102 125 177 175 127 101 62 144 111 104 153 155 119 122 135 119 137
83 72 44 39 31 68 86 66 68 72 83 44 41 47 90 74 47 83 95 58 132 141 185 150 151 164 144 143 85 96 105 93 120 114 185 173 169 150 151 132 149 145 146 143 108 85 97 99 19
69 77 43 35 40 64 72 100 101 108 52 56 70 27 63 86 122 117 57 51 39 159 245 200 172 179 184 200 87 77 106 91 127 183 196 242 227 186 162 110 113 164 188 149 117 104 93 40 25
59 95 104 70 54 45 46 93 72 55 67 63 68 74 50 73 104 147 122 72 62 88 191 234 202 218 243 232 137 87 139 118 162 213 239 277 256 206 147 145 217 200 140 162 106 133 102 57 45
-2 49 29 40 80 86 75 121 105 51 43 45 44 70 97 94 95 119 79 63 111 131 177 213 258 237 267 240 168 172 175 176 212 213 247 266 259 228 146 196 208 164 136 159 169 162 137 54 68
87 93 81 45 18 -3 6 53 60 33 20 32 16 47 52 69 55 76 46 55 90 87 196 308 346 287 269 284 229 209 199 165 206 178 168 223 246 223 181 113 131 199 198 178 184 232 204 161 103
105 98 45 -23 18 -2 15 53 25 3 24 16 2 10 92 34 43 54 45 72 60 132 121 288 319 300 275 327 256 173 161 161 205 204 140 192 224 217 212 169 168 212 234 188 192 206 194 130 92
70 83 67 48 43 33 25 34 16 70 22 31 37 57 74 51 53 58 79 36 67 127 109 206 264 314 307 310 246 155 163 145 157 224 173 181 203 215 220 193 200 227 246 201 201 198 160 149 120
73 67 44 21 56 33 41 75 32 34 26 61 31 53 80 52 50 72 61 66 93 93 121 209 234 309 341 292 294 271 201 178 224 223 194 167 174 191 213 214 192 183 237 228 201 193 177 136 127
83 97 30 18 78 51 72 55 24 57 50 57 34 33 74 45 41 63 92 90 87 80 125 227 243 267 309 293 308 297 246 228 204 170 170 182 158 189 209 251 232 201 178 276 231 222 234 140 155
130 144 69 65 40 63 41 76 43 37 23 32 48 42 73 59 79 78 89 79 97 119 167 213 213 181 226 257 337 349 318 181 131 140 170 194 141 220 203 270 272 249 266 303 263 273 261 184 170
180 113 106 50 35 71 57 27 48 31 16 13 35 83 35 76 52 96 75 63 88 164 270 268 167 170 204 324 389 332 273 259 236 247 200 178 177 175 234 267 285 265 242 266 264 316 278 239 198
59 31 78 66 70 50 41 102 40 17 -4 -20 -5 84 62 35 55 77 69 62 144 150 201 193 160 153 278 337 352 240 179 195 223 158 155 159 195 185 196 238 253 244 226 249 249 279 301 297 218
71 107 100 95 97 171 95 89 46 46 -1 -6 20 79 51 83 197 214 185 142 145 177 247 307 228 140 308 291 230 147 106 196 148 125 178 190 190 191 210 204 196 225 229 209 214 271 302 266 259
54 83 161 274 288 301 124 114 80 -8 -6 -19 37 205 196 207 195 164 81 93 103 169 246 317 260 160 236 188 119 90 132 137 103 155 180 216 200 177 177 196 185 194 211 213 190 271 305 251 271
27 37 96 204 207 182 82 64 32 32 72 27 95 198 164 146 188 181 206 207 193 226 139 95 104 165 251 166 116 121 125 115 176 182 159 228 190 195 230 232 250 216 221 213 212 273 262 294 223
22 64 56 35 27 64 31 7 -8 -37 2 5 150 139 76 80 172 189 150 161 170 194 174 81 78 153 198 214 193 163 159 137 191 209 199 176 166 212 221 220 267 272 253 223 222 165 230 275 268
25 17 51 58 99 206 115 51 8 19 -0 42 192 165 201 243 218 205 131 142 121 92 88 87 96 99 106 130 173 207 192 177 194 157 132 140 206 241 237 226 206 217 199 198 195 158 216 383 340
-53 -91 -35 29 63 93 122 66 -21 48 44 126 216 224 258 118 126 98 99 92 97 100 115 85 103 114 103 118 131 159 171 136 136 137 118 164 200 178 172 171 210 193 157 167 211 208 277 284 261
48 56 94 37 12 54 43 23 1 42 47 144 101 160 304 254 208 88 106 94 91 87 88 112 138 127 109 136 145 184 157 146 134 124 94 132 145 128 158 178 192 170 183 162 208 221 266 274 302

GFSSGP_con_3kmhel_123.txt.gz
Helicity
37 23 61 79 135 138 89 40 109 179 25 88 179 158 59 10 60 101 33 133 90 64 52 80 92 54 44 43 32 30 35 51 64 63 44 33 27 29 50 59 50 42 41 54 55 61 65 58 85
22 71 91 135 151 170 76 75 -3 13 53 248 236 255 183 41 38 42 143 62 91 75 44 70 66 48 42 40 39 34 27 40 52 49 43 30 64 98 165 170 163 123 117 29 45 51 63 73 85
25 57 129 140 151 151 95 59 2 -9 106 115 141 185 184 93 93 62 111 129 123 52 77 71 55 38 36 36 43 47 38 41 43 49 58 91 118 141 134 153 163 76 102 150 22 38 43 77 56
84 128 126 176 101 46 84 132 135 18 57 79 108 112 174 59 132 113 96 106 89 87 111 72 48 38 43 45 46 61 62 53 48 68 86 109 114 97 127 176 277 290 66 150 24 13 52 53 33
113 146 167 181 115 69 5 38 70 11 39 38 46 77 95 163 136 136 160 144 174 135 123 73 63 52 59 66 66 70 75 69 62 71 113 92 71 89 128 161 185 87 -2 -42 -54 10 41 43 25
159 148 211 172 105 54 34 46 52 27 161 97 76 73 49 154 225 138 254 280 238 186 151 101 79 66 69 76 85 76 71 74 67 83 107 73 74 67 100 123 88 56 29 -7 -54 -18 42 32 22
111 112 116 129 118 77 3 -29 33 -1 75 113 109 75 83 279 192 200 360 389 312 260 183 131 113 96 88 88 93 90 78 88 86 106 86 67 94 62 47 75 42 40 -22 -43 -28 2 15 20 33
112 126 79 80 69 32 -16 17 4 21 66 115 69 69 117 279 222 300 402 394 348 284 188 142 126 123 110 100 100 99 87 86 95 99 112 126 117 77 23 32 16 7 -17 -27 3 23 22 9 53
92 165 144 142 85 25 23 83 -33 17 137 166 104 79 170 279 338 327 396 383 340 267 190 142 143 137 127 114 104 114 100 94 97 109 139 163 132 93 50 25 40 28 -23 -27 42 21 49 32 60
153 187 191 128 62 76 41 21 -44 21 39 74 67 131 104 124 148 207 274 318 306 229 188 152 143 143 149 132 134 129 121 94 91 98 113 149 144 85 81 29 42 39 9 23 39 43 56 98 88
119 142 106 84 62 54 41 -30 -38 -9 130 37 55 76 82 113 75 81 157 225 233 206 182 161 142 137 148 168 157 139 138 108 104 109 130 130 131 108 105 41 19 37 87 54 78 74 76 109 162
102 77 81 79 61 95 77 -1 -31 -8 87 61 6 42 75 157 129 130 136 156 242 195 173 189 169 160 156 168 167 147 154 133 114 118 139 155 148 136 143 108 88 115 100 107 94 60 82 97 146
43 63 80 76 72 73 63 39 14 2 43 45 46 24 26 54 89 200 185 199 220 240 199 185 191 198 183 183 181 148 135 140 114 156 139 156 169 171 208 170 136 98 122 114 102 80 82 96 144
75 63 60 39 67 91 136 124 52 1 -17 7 64 31 6 49 17 105 163 156 159 218 268 242 204 217 234 234 199 170 131 122 141 140 157 171 210 198 215 235 175 124 133 113 96 73 81 81 71
96 89 69 69 100 99 59 61 106 67 46 22 21 90 62 42 31 34 89 129 129 159 225 279 268 278 281 273 220 172 166 123 165 191 217 234 249 230 233 233 207 153 131 140 105 92 94 92 51
114 115 157 114 122 68 100 84 66 69 70 53 50 90 95 23 33 48 75 124 138 163 210 232 301 335 334 312 285 212 193 192 206 261 250 260 239 227 237 256 291 206 128 126 138 117 134 108 81
105 147 148 96 107 111 107 64 84 54 71 80 51 52 65 39 22 103 101 160 186 158 214 297 336 431 405 378 313 311 250 236 240 284 261 231 212 202 229 257 278 277 229 163 173 167 162 127 121
141 151 137 130 47 85 88 68 63 35 47 50 55 51 54 46 24 116 78 80 94 86 190 340 405 444 472 400 360 316 273 241 233 237 236 231 200 187 186 246 290 324 298 233 207 202 204 178 187
124 156 137 111 67 84 84 55 27 38 -20 68 84 46 72 69 58 64 67 125 154 180 284 361 427 405 553 467 424 320 233 230 261 232 180 176 200 205 212 226 289 351 329 246 230 224 234 206 219
146 170 135 129 94 79 95 73 89 81 -16 51 -8 35 75 52 88 59 75 157 147 182 187 302 374 430 432 444 370 318 300 268 278 277 156 163 200 209 224 240 279 334 334 281 260 233 243 240 194
143 162 163 195 122 128 151 91 50 85 47 23 -52 27 64 49 56 47 75 75 157 161 170 221 292 330 353 398 422 439 414 351 329 235 193 182 177 183 213 227 267 311 335 311 261 255 273 289 220
284 148 163 150 167 203 167 160 79 72 63 25 -1 38 50 55 43 52 53 98 92 121 134 208 256 275 295 377 418 405 387 372 335 276 231 194 163 158 196 226 249 297 329 320 271 239 268 287 300
200 112 93 68 51 186 211 161 -71 99 47 27 43 99 58 42 47 41 76 119 117 112 142 227 269 260 307 369 377 402 396 349 310 253 192 165 173 169 206 201 253 291 306 297 301 258 270 254 342
59 66 63 52 51 83 167 181 -86 37 37 31 86 -33 -27 39 76 76 68 171 236 192 242 282 263 293 288 327 353 360 340 310 259 254 214 210 171 173 172 205 247 284 276 282 304 270 253 270 311
105 126 97 106 112 92 79 125 26 80 73 53 42 24 72 123 162 308 345 328 415 451 441 405 397 306 293 299 334 337 299 276 256 216 190 205 220 191 214 187 177 249 234 247 245 228 237 256 282
-27 116 148 174 170 20 88 53 -12 35 -157 -2 10 71 283 498 469 500 461 507 492 412 379 390 409 406 328 247 240 241 214 206 186 166 213 201 172 157 201 179 175 182 189 210 228 240 266 245 228
80 59 16 122 77 -3 14 39 102 -15 30 69 44 183 177 275 483 528 558 491 427 311 266 295 282 247 269 248 180 157 128 105 163 174 227 193 156 151 189 200 199 183 184 205 223 258 247 279 229
48 50 47 139 57 33 -39 23 32 -14 81 150 47 253 401 443 374 458 432 375 411 315 232 143 130 154 218 256 257 203 140 164 226 231 253 184 193 222 232 198 197 200 214 233 245 223 207 189 210
76 3 87 17 39 -5 -6 -98 -87 -3 61 141 134 376 508 571 388 254 275 214 237 213 196 187 197 186 193 188 189 194 193 197 222 186 198 220 240 239 220 207 214 205 202 207 184 158 205 200 148
82 -0 167 118 -17 -29 -8 -177 -48 34 34 55 240 448 547 427 328 394 242 219 190 147 138 145 150 176 224 199 174 163 158 170 188 171 178 196 205 184 165 170 156 142 147 131 135 160 164 172 173

GFSSGP_con_3kmhel_129.txt.gz
Helicity
64 82 87 119 152 176 83 28 19 31 55 42 125 11 29 50 162 180 115 84 82 81 11 21 71 102 132 136 136 134 147 168 173 171 173 174 172 166 135 120 109 93 86 80 77 58 49 54 67
73 103 136 147 212 201 85 49 54 51 60 113 80 28 41 89 53 79 150 11 57 37 16 16 58 62 80 100 96 100 119 126 127 131 132 127 129 124 127 127 110 80 93 101 74 80 61 57 72
79 108 152 209 210 188 91 19 43 60 68 143 37 27 16 30 52 57 -9 66 74 22 -4 12 21 11 57 80 82 83 94 97 95 100 99 94 89 92 110 103 86 75 77 78 64 53 56 74 107
93 140 170 189 122 77 42 42 -4 24 70 38 87 92 49 53 59 3 98 110 87 15 -7 17 -23 -17 51 64 69 79 81 69 71 74 81 75 75 108 116 118 98 100 100 67 102 108 66 93 90
129 162 207 185 110 79 25 -28 -1 74 120 115 127 34 53 149 200 160 124 90 77 21 19 10 -55 -2 48 55 65 75 69 58 65 59 72 71 94 113 101 89 100 123 130 147 80 118 54 62 77
189 188 235 175 119 70 20 -16 4 31 105 142 72 175 12 152 222 116 112 78 66 79 55 0 -36 13 52 58 56 68 66 71 76 63 58 77 93 99 98 65 75 110 143 119 57 70 74 62 90
192 235 206 179 119 79 38 36 5 -4 42 45 51 226 40 118 108 190 167 124 97 134 109 36 26 39 63 70 73 65 60 74 85 71 61 81 85 89 76 44 32 116 104 34 73 50 104 69 97
171 213 225 175 146 90 39 26 -12 -5 -30 -65 -57 87 86 67 264 401 262 188 192 189 106 86 91 78 83 81 91 83 71 87 89 84 74 67 74 77 69 53 52 100 93 24 21 57 89 80 103
143 268 240 185 140 104 54 12 -11 10 5 -52 -85 74 34 -61 265 457 333 237 223 186 117 126 127 109 115 124 94 89 81 98 93 84 87 73 47 52 57 51 50 82 116 -10 6 51 50 76 111
181 217 141 122 88 76 65 53 51 13 52 12 -58 -20 47 2 189 243 338 242 214 156 162 157 156 160 153 166 136 109 92 86 89 72 89 66 54 51 44 49 52 57 43 0 16 52 67 103 105
161 147 107 82 68 76 63 56 40 17 12 14 -17 6 83 38 15 123 122 166 172 157 186 167 213 212 207 192 168 133 121 93 80 82 79 66 71 72 53 41 31 41 38 10 29 59 80 84 91
164 70 82 68 95 51 53 47 49 20 4 -48 -16 -44 1 38 44 5 26 20 40 147 170 221 229 237 233 245 201 158 137 99 94 77 75 91 92 98 79 64 44 36 53 47 51 51 58 65 78
94 90 79 64 27 18 16 41 53 34 10 -25 -37 -44 -28 -4 27 94 77 30 34 58 82 231 279 267 267 275 244 189 137 133 102 99 96 102 110 104 105 80 67 58 62 50 46 34 51 72 96
74 56 53 47 66 69 72 62 81 36 -7 -17 -34 -8 2 -9 11 35 63 91 76 70 91 153 233 253 274 269 232 217 194 159 126 120 103 113 109 105 114 116 86 70 48 35 47 51 58 84 118
65 50 26 41 118 77 90 40 94 43 40 23 8 -14 20 48 19 25 57 84 119 135 202 196 212 245 282 259 240 238 214 195 168 140 112 121 128 111 117 123 105 59 57 38 27 62 69 84 112
89 108 114 153 59 113 110 120 38 19 82 91 45 -20 38 40 105 58 30 83 110 91 187 225 219 236 250 248 236 214 222 233 211 180 155 125 129 134 127 114 100 88 86 64 50 93 97 87 104
132 108 80 12 126 101 83 107 41 39 -12 38 36 25 10 45 68 101 94 84 103 131 150 248 264 242 255 274 247 208 198 226 229 225 185 162 149 157 135 105 111 145 120 107 98 112 132 97 133
67 60 61 77 54 65 43 73 66 27 15 17 8 12 6 5 25 47 84 81 126 166 153 187 284 314 256 307 295 254 235 205 211 215 204 199 185 176 176 136 143 168 154 139 145 128 135 126 155
59 81 75 70 81 64 53 73 63 16 3 2 26 -6 -10 5 -24 22 75 84 56 160 185 204 241 267 368 383 359 308 287 247 222 221 233 236 202 203 199 175 166 176 177 161 168 151 150 167 192
94 96 82 49 37 20 29 47 75 51 -18 -24 -71 14 -24 -40 -51 -6 44 39 60 98 152 190 267 314 388 417 395 378 351 278 275 238 218 223 231 225 225 223 196 175 185 200 196 224 221 201 218
66 58 63 99 68 76 83 160 116 121 109 121 124 87 52 -46 -45 -1 30 74 65 78 165 154 148 297 372 423 450 506 496 429 321 228 222 234 259 246 234 240 226 213 196 185 197 198 235 234 199
58 51 126 127 115 218 182 252 119 173 88 80 86 65 74 11 -33 2 46 91 54 -1 76 135 177 291 342 432 512 482 463 420 339 296 294 274 271 242 250 246 242 239 228 201 205 204 206 234 238
53 103 129 106 141 132 125 106 302 258 196 175 101 76 136 127 21 19 77 96 37 22 -41 110 149 234 310 390 423 458 396 437 451 367 293 289 258 217 227 262 246 250 262 248 249 237 238 269 244
101 138 129 122 73 156 103 79 244 90 123 28 74 124 142 136 85 93 96 89 73 91 -43 95 84 159 300 357 378 376 428 469 412 314 301 281 275 250 213 269 220 224 249 278 258 243 216 241 241
153 185 135 133 100 172 115 83 128 54 138 15 192 236 242 151 116 90 93 52 141 167 -24 -70 146 180 214 295 340 336 335 373 363 315 293 289 306 262 199 279 232 224 234 235 232 231 217 221 227
139 93 104 165 135 145 32 86 127 -22 -34 16 62 90 -29 53 8 10 64 182 236 279 313 51 171 274 219 195 214 250 302 330 290 280 272 245 246 233 225 252 219 205 220 225 225 221 223 229 223
93 119 64 143 166 107 143 130 122 -52 -120 -73 -8 -9 -54 -18 30 35 165 345 446 544 558 211 187 346 316 316 290 310 269 264 264 258 238 221 223 226 173 222 222 215 211 212 204 213 225 224 213
87 43 34 78 94 123 193 69 27 -64 -77 -86 -9 118 121 87 117 248 343 516 708 789 674 535 536 487 409 312 250 249 240 254 263 275 251 244 229 209 184 210 209 195 198 188 180 188 216 206 215
76 80 61 120 170 196 168 201 -25 -104 -165 -134 -7 227 136 3 59 231 284 402 485 527 559 583 539 526 524 442 339 246 185 211 220 220 236 224 198 226 198 180 164 152 154 158 155 162 176 192 200
83 76 55 109 142 275 258 300 -46 -118 -146 -122 -89 -44 103 75 137 164 296 233 278 347 285 317 344 338 362 337 334 331 280 215 213 200 192 214 184 208 185 155 139 142 151 169 159 152 165 161 153